| time (UTC) | temp C | wind direction | speed KPH | gust KPH | rain 1hr cm | rain 24hr cm | rain mn cm | humidity % | barometer mb |
| 20260507020122 | 14 | 291 | 14.5 | 29.0 | 0.00 | 0.00 | 0.00 | 1 | 1017.6 |
| 20260507020118 | 14 | 292 | 14.5 | 29.0 | 0.00 | 0.00 | 0.00 | 1 | 1017.5 |
| 20260507015914 | 14 | 309 | 14.5 | 29.0 | 0.00 | 0.00 | 0.00 | 1 | 1017.6 |
| 20260507015814 | 14 | 289 | 14.5 | 29.0 | 0.00 | 0.00 | 0.00 | 1 | 1017.6 |
| 20260507015714 | 14 | 272 | 14.5 | 29.0 | 0.00 | 0.00 | 0.00 | 1 | 1017.6 |
| 20260507015614 | 14 | 5 | 16.1 | 35.4 | 0.00 | 0.00 | 0.00 | 1 | 1017.6 |
| 20260507015514 | 14 | 277 | 16.1 | 35.4 | 0.00 | 0.00 | 0.00 | 1 | 1017.6 |
| 20260507015414 | 14 | 296 | 16.1 | 35.4 | 0.00 | 0.00 | 0.00 | 1 | 1017.6 |
| 20260507015314 | 14 | 312 | 16.1 | 35.4 | 0.00 | 0.00 | 0.00 | 1 | 1017.5 |
| 20260507015214 | 13 | 273 | 16.1 | 35.4 | 0.00 | 0.00 | 0.00 | 1 | 1017.5 |
| 20260507015112 | 13 | 219 | 17.7 | 35.4 | 0.00 | 0.00 | 0.00 | 1 | 1017.6 |
| 20260507015012 | 13 | 279 | 17.7 | 37.0 | 0.00 | 0.00 | 0.00 | 1 | 1017.6 |
| 20260507014912 | 13 | 276 | 19.3 | 37.0 | 0.00 | 0.00 | 0.00 | 1 | 1017.5 |
| 20260507014811 | 13 | 286 | 19.3 | 37.0 | 0.00 | 0.00 | 0.00 | 1 | 1017.6 |
| 20260507014711 | 14 | 288 | 19.3 | 37.0 | 0.00 | 0.00 | 0.00 | 1 | 1017.6 |
| 20260507014612 | 14 | 290 | 17.7 | 37.0 | 0.00 | 0.00 | 0.00 | 1 | 1017.6 |
| 20260507014506 | 14 | 269 | 17.7 | 37.0 | 0.00 | 0.00 | 0.00 | 1 | 1017.5 |
| 20260507014406 | 14 | 241 | 17.7 | 37.0 | 0.00 | 0.00 | 0.00 | 1 | 1017.6 |
| 20260507014306 | 13 | 331 | 17.7 | 37.0 | 0.00 | 0.00 | 0.00 | 1 | 1017.6 |
| 20260507014205 | 13 | 323 | 17.7 | 37.0 | 0.00 | 0.00 | 0.00 | 1 | 1017.6 |
| 20260507014105 | 14 | 279 | 17.7 | 37.0 | 0.00 | 0.00 | 0.00 | 1 | 1017.6 |
| 20260507014006 | 14 | 333 | 17.7 | 30.6 | 0.00 | 0.00 | 0.00 | 1 | 1017.6 |
| 20260507013906 | 14 | 273 | 17.7 | 30.6 | 0.00 | 0.00 | 0.00 | 1 | 1017.6 |
| 20260507013806 | 14 | 261 | 17.7 | 30.6 | 0.00 | 0.00 | 0.00 | 1 | 1017.6 |
| 20260507013706 | 14 | 290 | 17.7 | 30.6 | 0.00 | 0.00 | 0.00 | 1 | 1017.6 |
| 20260507013606 | 14 | 305 | 17.7 | 30.6 | 0.00 | 0.00 | 0.00 | 1 | 1017.6 |
| 20260507013505 | 14 | 269 | 17.7 | 29.0 | 0.00 | 0.00 | 0.00 | 1 | 1017.6 |
| 20260507013404 | 14 | 275 | 17.7 | 32.2 | 0.00 | 0.00 | 0.00 | 1 | 1017.6 |
| 20260507013304 | 14 | 345 | 17.7 | 32.2 | 0.00 | 0.00 | 0.00 | 1 | 1017.5 |
| 20260507013204 | 14 | 324 | 17.7 | 32.2 | 0.00 | 0.00 | 0.00 | 1 | 1017.6 |
| 20260507013104 | 14 | 288 | 17.7 | 32.2 | 0.00 | 0.00 | 0.00 | 1 | 1017.6 |
| 20260507013003 | 14 | 287 | 17.7 | 32.2 | 0.00 | 0.00 | 0.00 | 1 | 1017.6 |
| 20260507012904 | 14 | 261 | 17.7 | 32.2 | 0.00 | 0.00 | 0.00 | 1 | 1017.6 |
| 20260507012802 | 14 | 293 | 16.1 | 32.2 | 0.00 | 0.00 | 0.00 | 1 | 1017.6 |
| 20260507012711 | 14 | 293 | 16.1 | 32.2 | 0.00 | 0.00 | 0.00 | 1 | 1017.6 |
| 20260507012706 | 14 | 282 | 16.1 | 32.2 | 0.00 | 0.00 | 0.00 | 1 | 1017.6 |
| 20260507012502 | 14 | 277 | 16.1 | 32.2 | 0.00 | 0.00 | 0.00 | 1 | 1017.6 |
| 20260507012402 | 14 | 264 | 16.1 | 27.4 | 0.00 | 0.00 | 0.00 | 1 | 1017.6 |
| 20260507012305 | 14 | 275 | 16.1 | 27.4 | 0.00 | 0.00 | 0.00 | 1 | 1017.6 |
| 20260507012202 | 14 | 254 | 16.1 | 27.4 | 0.00 | 0.00 | 0.00 | 1 | 1017.6 |
| 20260507012102 | 14 | 305 | 16.1 | 27.4 | 0.00 | 0.00 | 0.00 | 1 | 1017.6 |
| 20260507012002 | 14 | 275 | 16.1 | 27.4 | 0.00 | 0.00 | 0.00 | 1 | 1017.6 |
| 20260507011902 | 14 | 252 | 16.1 | 27.4 | 0.00 | 0.00 | 0.00 | 1 | 1017.6 |
| 20260507011802 | 14 | 277 | 16.1 | 27.4 | 0.00 | 0.00 | 0.00 | 1 | 1017.5 |
| 20260507011702 | 14 | 331 | 17.7 | 27.4 | 0.00 | 0.00 | 0.00 | 1 | 1017.6 |
| 20260507011559 | 14 | 279 | 17.7 | 27.4 | 0.00 | 0.00 | 0.00 | 1 | 1017.6 |
| 20260507011500 | 14 | 312 | 17.7 | 27.4 | 0.00 | 0.00 | 0.00 | 1 | 1017.6 |
| 20260507011400 | 14 | 280 | 17.7 | 29.0 | 0.00 | 0.00 | 0.00 | 1 | 1017.6 |
| 20260507011300 | 14 | 283 | 17.7 | 29.0 | 0.00 | 0.00 | 0.00 | 1 | 1017.7 |
| 20260507011200 | 14 | 288 | 17.7 | 29.0 | 0.00 | 0.00 | 0.00 | 1 | 1017.6 |
| 20260507011100 | 14 | 277 | 17.7 | 29.0 | 0.00 | 0.00 | 0.00 | 1 | 1017.7 |
| 20260507011000 | 14 | 273 | 17.7 | 29.0 | 0.00 | 0.00 | 0.00 | 1 | 1017.6 |
| 20260507010900 | 14 | 294 | 17.7 | 29.0 | 0.00 | 0.00 | 0.00 | 1 | 1017.7 |
| 20260507010800 | 14 | 293 | 17.7 | 29.0 | 0.00 | 0.00 | 0.00 | 1 | 1017.7 |
| 20260507010659 | 14 | 269 | 17.7 | 29.0 | 0.00 | 0.00 | 0.00 | 1 | 1017.7 |
| 20260507010600 | 14 | 279 | 17.7 | 29.0 | 0.00 | 0.00 | 0.00 | 1 | 1017.7 |
| 20260507010500 | 14 | 275 | 17.7 | 29.0 | 0.00 | 0.00 | 0.00 | 1 | 1017.7 |
| 20260507010400 | 14 | 293 | 16.1 | 29.0 | 0.00 | 0.00 | 0.00 | 1 | 1017.7 |
| 20260507010300 | 14 | 313 | 16.1 | 29.0 | 0.00 | 0.00 | 0.00 | 1 | 1017.7 |
| 20260507010200 | 14 | 286 | 16.1 | 29.0 | 0.00 | 0.00 | 0.00 | 1 | 1017.7 |
| 20260507010059 | 14 | 284 | 16.1 | 29.0 | 0.00 | 0.00 | 0.00 | 1 | 1017.7 |
| 20260507005959 | 14 | 276 | 16.1 | 29.0 | 0.00 | 0.00 | 0.00 | 1 | 1017.7 |
| 20260507005900 | 14 | 306 | 17.7 | 30.6 | 0.00 | 0.00 | 0.00 | 1 | 1017.7 |
| 20260507005800 | 14 | 277 | 17.7 | 30.6 | 0.00 | 0.00 | 0.00 | 1 | 1017.6 |
| 20260507005656 | 14 | 300 | 17.7 | 30.6 | 0.00 | 0.00 | 0.00 | 1 | 1017.6 |
| 20260507005555 | 15 | 277 | 17.7 | 30.6 | 0.00 | 0.00 | 0.00 | 1 | 1017.6 |
| 20260507005504 | 15 | 267 | 19.3 | 30.6 | 0.00 | 0.00 | 0.00 | 1 | 1017.6 |
| 20260507005500 | 15 | 321 | 17.7 | 30.6 | 0.00 | 0.00 | 0.00 | 1 | 1017.6 |
| 20260507005256 | 15 | 265 | 19.3 | 30.6 | 0.00 | 0.00 | 0.00 | 1 | 1017.6 |
| 20260507005156 | 15 | 257 | 19.3 | 30.6 | 0.00 | 0.00 | 0.00 | 1 | 1017.7 |
| 20260507005056 | 15 | 281 | 19.3 | 30.6 | 0.00 | 0.00 | 0.00 | 1 | 1017.7 |
| 20260507004956 | 15 | 293 | 17.7 | 30.6 | 0.00 | 0.00 | 0.00 | 1 | 1017.7 |
| 20260507004856 | 15 | 274 | 17.7 | 29.0 | 0.00 | 0.00 | 0.00 | 1 | 1017.7 |
| 20260507004755 | 15 | 272 | 17.7 | 29.0 | 0.00 | 0.00 | 0.00 | 1 | 1017.7 |
| 20260507004656 | 15 | 276 | 16.1 | 29.0 | 0.00 | 0.00 | 0.00 | 1 | 1017.7 |
| 20260507004601 | 15 | 246 | 16.1 | 29.0 | 0.00 | 0.00 | 0.00 | 1 | 1017.6 |
| 20260507004456 | 15 | 286 | 16.1 | 29.0 | 0.00 | 0.00 | 0.00 | 1 | 1017.7 |
| 20260507004356 | 15 | 283 | 16.1 | 29.0 | 0.00 | 0.00 | 0.00 | 1 | 1017.6 |
| 20260507004255 | 15 | 273 | 16.1 | 27.4 | 0.00 | 0.00 | 0.00 | 1 | 1017.6 |
| 20260507004204 | 15 | 309 | 16.1 | 27.4 | 0.00 | 0.00 | 0.00 | 1 | 1017.6 |
| 20260507004159 | 15 | 275 | 16.1 | 27.4 | 0.00 | 0.00 | 0.00 | 1 | 1017.6 |
| 20260507003956 | 15 | 306 | 16.1 | 27.4 | 0.00 | 0.00 | 0.00 | 1 | 1017.5 |
| 20260507003856 | 15 | 268 | 16.1 | 27.4 | 0.00 | 0.00 | 0.00 | 1 | 1017.6 |
| 20260507003751 | 15 | 267 | 16.1 | 27.4 | 0.00 | 0.00 | 0.00 | 1 | 1017.7 |
| 20260507003652 | 15 | 313 | 16.1 | 27.4 | 0.00 | 0.00 | 0.00 | 1 | 1017.7 |
| 20260507003552 | 15 | 281 | 17.7 | 27.4 | 0.00 | 0.00 | 0.00 | 1 | 1017.6 |
| 20260507003452 | 15 | 268 | 17.7 | 27.4 | 0.00 | 0.00 | 0.00 | 1 | 1017.6 |
| 20260507003352 | 15 | 273 | 17.7 | 27.4 | 0.00 | 0.00 | 0.00 | 1 | 1017.7 |
| 20260507003252 | 15 | 288 | 17.7 | 29.0 | 0.00 | 0.00 | 0.00 | 1 | 1017.6 |
| 20260507003152 | 15 | 276 | 17.7 | 29.0 | 0.00 | 0.00 | 0.00 | 1 | 1017.6 |
| 20260507003052 | 15 | 295 | 17.7 | 29.0 | 0.00 | 0.00 | 0.00 | 1 | 1017.7 |
| 20260507002951 | 15 | 266 | 19.3 | 29.0 | 0.00 | 0.00 | 0.00 | 1 | 1017.6 |
| 20260507002851 | 14 | 187 | 19.3 | 29.0 | 0.00 | 0.00 | 0.00 | 1 | 1017.6 |
| 20260507002752 | 14 | 275 | 19.3 | 29.0 | 0.00 | 0.00 | 0.00 | 1 | 1017.7 |
| 20260507002652 | 14 | 278 | 19.3 | 29.0 | 0.00 | 0.00 | 0.00 | 1 | 1017.7 |
| 20260507002552 | 14 | 290 | 19.3 | 32.2 | 0.00 | 0.00 | 0.00 | 1 | 1017.6 |
| 20260507002452 | 14 | 312 | 20.9 | 33.8 | 0.00 | 0.00 | 0.00 | 1 | 1017.6 |
| 20260507002351 | 14 | 279 | 20.9 | 33.8 | 0.00 | 0.00 | 0.00 | 1 | 1017.6 |
| 20260507002306 | 14 | 280 | 19.3 | 33.8 | 0.00 | 0.00 | 0.00 | 1 | 1017.7 |
| 20260507002155 | 14 | 323 | 19.3 | 33.8 | 0.00 | 0.00 | 0.00 | 1 | 1017.7 |
| 20260507001952 | 14 | 258 | 19.3 | 33.8 | 0.00 | 0.00 | 0.00 | 1 | 1017.7 |
| 20260507001848 | 15 | 242 | 17.7 | 33.8 | 0.00 | 0.00 | 0.00 | 1 | 1017.6 |
| 20260507001756 | 15 | 281 | 17.7 | 33.8 | 0.00 | 0.00 | 0.00 | 1 | 1017.7 |
| 20260507001752 | 15 | 305 | 17.7 | 33.8 | 0.00 | 0.00 | 0.00 | 1 | 1017.6 |
| 20260507001548 | 15 | 292 | 16.1 | 33.8 | 0.00 | 0.00 | 0.00 | 1 | 1017.8 |
| 20260507001447 | 15 | 265 | 16.1 | 29.0 | 0.00 | 0.00 | 0.00 | 1 | 1017.7 |
| 20260507001348 | 15 | 293 | 16.1 | 29.0 | 0.00 | 0.00 | 0.00 | 1 | 1017.7 |
| 20260507001248 | 15 | 279 | 16.1 | 29.0 | 0.00 | 0.00 | 0.00 | 1 | 1017.7 |
| 20260507001148 | 15 | 280 | 16.1 | 27.4 | 0.00 | 0.00 | 0.00 | 1 | 1017.7 |
| 20260507001048 | 15 | 283 | 16.1 | 27.4 | 0.00 | 0.00 | 0.00 | 1 | 1017.7 |
| 20260507000947 | 15 | 249 | 16.1 | 27.4 | 0.00 | 0.00 | 0.00 | 1 | 1017.7 |
| 20260507000847 | 15 | 294 | 16.1 | 27.4 | 0.00 | 0.00 | 0.00 | 1 | 1017.6 |
| 20260507000748 | 15 | 289 | 16.1 | 27.4 | 0.00 | 0.00 | 0.00 | 1 | 1017.7 |
| 20260507000648 | 15 | 301 | 16.1 | 27.4 | 0.00 | 0.00 | 0.00 | 1 | 1017.7 |
| 20260507000548 | 15 | 263 | 16.1 | 30.6 | 0.00 | 0.00 | 0.00 | 1 | 1017.7 |
| 20260507000449 | 15 | 280 | 16.1 | 30.6 | 0.00 | 0.00 | 0.00 | 1 | 1017.7 |
| 20260507000347 | 15 | 313 | 16.1 | 30.6 | 0.00 | 0.00 | 0.00 | 1 | 1017.7 |
| 20260507000248 | 15 | 288 | 16.1 | 30.6 | 0.00 | 0.00 | 0.00 | 1 | 1017.7 |
| 20260507000148 | 15 | 283 | 16.1 | 30.6 | 0.00 | 0.00 | 0.00 | 1 | 1017.8 |
| 20260507000048 | 15 | 288 | 16.1 | 30.6 | 0.00 | 0.00 | 0.00 | 1 | 1017.8 |
| 20260506235941 | 15 | 279 | 16.1 | 30.6 | 0.00 | 0.00 | 0.00 | 1 | 1017.8 |
| 20260506235841 | 15 | 284 | 16.1 | 30.6 | 0.00 | 0.00 | 0.00 | 1 | 1017.8 |
| 20260506235742 | 15 | 254 | 16.1 | 30.6 | 0.00 | 0.00 | 0.00 | 1 | 1017.8 |
| 20260506235642 | 15 | 279 | 14.5 | 30.6 | 0.00 | 0.00 | 0.00 | 1 | 1017.8 |
| 20260506235542 | 15 | 282 | 16.1 | 29.0 | 0.00 | 0.00 | 0.00 | 1 | 1017.8 |
| 20260506235442 | 15 | 265 | 16.1 | 29.0 | 0.00 | 0.00 | 0.00 | 1 | 1017.8 |
| 20260506235342 | 15 | 235 | 16.1 | 32.2 | 0.00 | 0.00 | 0.00 | 1 | 1017.7 |
| 20260506235241 | 15 | 278 | 16.1 | 32.2 | 0.00 | 0.00 | 0.00 | 1 | 1017.7 |
| 20260506235141 | 15 | 260 | 16.1 | 32.2 | 0.00 | 0.00 | 0.00 | 1 | 1017.8 |
| 20260506235041 | 15 | 265 | 16.1 | 32.2 | 0.00 | 0.00 | 0.00 | 1 | 1017.8 |
| 20260506234942 | 15 | 258 | 16.1 | 32.2 | 0.00 | 0.00 | 0.00 | 1 | 1017.8 |
| 20260506234842 | 15 | 251 | 16.1 | 32.2 | 0.00 | 0.00 | 0.00 | 1 | 1017.8 |
| 20260506234740 | 15 | 280 | 17.7 | 32.2 | 0.00 | 0.00 | 0.00 | 1 | 1017.7 |
| 20260506234639 | 15 | 252 | 17.7 | 32.2 | 0.00 | 0.00 | 0.00 | 1 | 1017.7 |
| 20260506234539 | 15 | 260 | 17.7 | 32.2 | 0.00 | 0.00 | 0.00 | 1 | 1017.8 |
| 20260506234440 | 15 | 275 | 17.7 | 32.2 | 0.00 | 0.00 | 0.00 | 1 | 1017.8 |
| 20260506234340 | 15 | 264 | 19.3 | 30.6 | 0.00 | 0.00 | 0.00 | 1 | 1017.8 |
| 20260506234240 | 15 | 292 | 19.3 | 30.6 | 0.00 | 0.00 | 0.00 | 1 | 1017.8 |
| 20260506234140 | 15 | 288 | 19.3 | 30.6 | 0.00 | 0.00 | 0.00 | 1 | 1017.8 |
| 20260506234037 | 15 | 325 | 19.3 | 29.0 | 0.00 | 0.00 | 0.00 | 1 | 1017.8 |
| 20260506233938 | 15 | 293 | 19.3 | 29.0 | 0.00 | 0.00 | 0.00 | 1 | 1017.8 |
| 20260506233838 | 15 | 283 | 19.3 | 29.0 | 0.00 | 0.00 | 0.00 | 1 | 1017.9 |
| 20260506233738 | 15 | 287 | 19.3 | 29.0 | 0.00 | 0.00 | 0.00 | 1 | 1017.8 |
| 20260506233638 | 15 | 247 | 19.3 | 29.0 | 0.00 | 0.00 | 0.00 | 1 | 1017.8 |
| 20260506233538 | 15 | 252 | 19.3 | 29.0 | 0.00 | 0.00 | 0.00 | 1 | 1017.9 |
| 20260506233437 | 15 | 273 | 19.3 | 29.0 | 0.00 | 0.00 | 0.00 | 1 | 1017.9 |
| 20260506233337 | 15 | 277 | 17.7 | 29.0 | 0.00 | 0.00 | 0.00 | 1 | 1017.8 |
| 20260506233238 | 15 | 264 | 17.7 | 29.0 | 0.00 | 0.00 | 0.00 | 1 | 1017.9 |
| 20260506233144 | 15 | 290 | 17.7 | 27.4 | 0.00 | 0.00 | 0.00 | 1 | 1017.8 |
| 20260506233140 | 15 | 309 | 17.7 | 29.0 | 0.00 | 0.00 | 0.00 | 1 | 1017.8 |
| 20260506232936 | 15 | 291 | 16.1 | 27.4 | 0.00 | 0.00 | 0.00 | 1 | 1017.9 |
| 20260506232836 | 15 | 284 | 17.7 | 27.4 | 0.00 | 0.00 | 0.00 | 1 | 1017.9 |
| 20260506232735 | 15 | 249 | 17.7 | 29.0 | 0.00 | 0.00 | 0.00 | 1 | 1017.9 |
| 20260506232635 | 15 | 245 | 17.7 | 29.0 | 0.00 | 0.00 | 0.00 | 1 | 1017.9 |
| 20260506232536 | 15 | 267 | 17.7 | 29.0 | 0.00 | 0.00 | 0.00 | 1 | 1017.9 |
| 20260506232434 | 15 | 275 | 17.7 | 29.0 | 0.00 | 0.00 | 0.00 | 1 | 1017.9 |
| 20260506232334 | 15 | 290 | 19.3 | 29.0 | 0.00 | 0.00 | 0.00 | 1 | 1017.9 |
| 20260506232234 | 15 | 306 | 19.3 | 29.0 | 0.00 | 0.00 | 0.00 | 1 | 1017.9 |
| 20260506232134 | 15 | 275 | 19.3 | 33.8 | 0.00 | 0.00 | 0.00 | 1 | 1017.9 |
| 20260506232033 | 14 | 267 | 19.3 | 33.8 | 0.00 | 0.00 | 0.00 | 1 | 1017.9 |
| 20260506231933 | 14 | 270 | 19.3 | 33.8 | 0.00 | 0.00 | 0.00 | 1 | 1017.9 |
| 20260506231842 | 14 | 232 | 19.3 | 33.8 | 0.00 | 0.00 | 0.00 | 1 | 1017.9 |
| 20260506231838 | 14 | 253 | 19.3 | 33.8 | 0.00 | 0.00 | 0.00 | 1 | 1018.0 |
| 20260506231633 | 14 | 266 | 19.3 | 33.8 | 0.00 | 0.00 | 0.00 | 1 | 1017.9 |
| 20260506231535 | 15 | 312 | 19.3 | 35.4 | 0.00 | 0.00 | 0.00 | 1 | 1018.0 |
| 20260506231433 | 15 | 278 | 17.7 | 35.4 | 0.00 | 0.00 | 0.00 | 1 | 1017.9 |
| 20260506231328 | 15 | 284 | 17.7 | 35.4 | 0.00 | 0.00 | 0.00 | 1 | 1017.9 |
| 20260506231227 | 15 | 289 | 17.7 | 35.4 | 0.00 | 0.00 | 0.00 | 1 | 1017.9 |
| 20260506231128 | 15 | 290 | 19.3 | 35.4 | 0.00 | 0.00 | 0.00 | 1 | 1017.9 |
| 20260506231028 | 15 | 302 | 19.3 | 35.4 | 0.00 | 0.00 | 0.00 | 1 | 1017.9 |
| 20260506230933 | 15 | 271 | 19.3 | 35.4 | 0.00 | 0.00 | 0.00 | 1 | 1018.0 |
| 20260506230821 | 15 | 277 | 19.3 | 35.4 | 0.00 | 0.00 | 0.00 | 1 | 1018.0 |
| 20260506230720 | 15 | 290 | 19.3 | 35.4 | 0.00 | 0.00 | 0.00 | 1 | 1018.0 |
| 20260506230620 | 15 | 261 | 19.3 | 35.4 | 0.00 | 0.00 | 0.00 | 1 | 1018.0 |
| 20260506230519 | 15 | 253 | 19.3 | 30.6 | 0.00 | 0.00 | 0.00 | 1 | 1018.0 |
| 20260506230419 | 15 | 275 | 19.3 | 30.6 | 0.00 | 0.00 | 0.00 | 1 | 1018.1 |
| 20260506230316 | 15 | 275 | 19.3 | 30.6 | 0.00 | 0.00 | 0.00 | 1 | 1018.1 |
| 20260506230213 | 15 | 270 | 19.3 | 32.2 | 0.00 | 0.00 | 0.00 | 1 | 1018.1 |
| 20260506230113 | 15 | 297 | 19.3 | 32.2 | 0.00 | 0.00 | 0.00 | 1 | 1018.1 |
| 20260506230014 | 15 | 284 | 17.7 | 32.2 | 0.00 | 0.00 | 0.00 | 1 | 1018.1 |
| 20260506225912 | 15 | 319 | 19.3 | 32.2 | 0.00 | 0.00 | 0.00 | 1 | 1018.1 |
| 20260506225807 | 15 | 0 | 19.3 | 32.2 | 0.00 | 0.00 | 0.00 | 1 | 1018.1 |
| 20260506225708 | 15 | 300 | 19.3 | 32.2 | 0.00 | 0.00 | 0.00 | 1 | 1018.1 |
| 20260506225608 | 15 | 305 | 19.3 | 32.2 | 0.00 | 0.00 | 0.00 | 1 | 1018.1 |
| 20260506225507 | 15 | 284 | 19.3 | 32.2 | 0.00 | 0.00 | 0.00 | 1 | 1018.1 |
| 20260506225405 | 15 | 262 | 19.3 | 32.2 | 0.00 | 0.00 | 0.00 | 1 | 1018.1 |
| 20260506225300 | 15 | 289 | 20.9 | 32.2 | 0.00 | 0.00 | 0.00 | 1 | 1018.1 |
| 20260506225159 | 15 | 275 | 20.9 | 32.2 | 0.00 | 0.00 | 0.00 | 1 | 1018.1 |
| 20260506225059 | 15 | 271 | 20.9 | 32.2 | 0.00 | 0.00 | 0.00 | 1 | 1018.1 |
| 20260506225000 | 15 | 299 | 20.9 | 32.2 | 0.00 | 0.00 | 0.00 | 1 | 1018.1 |
| 20260506224859 | 15 | 298 | 19.3 | 32.2 | 0.00 | 0.00 | 0.00 | 1 | 1018.1 |
| 20260506224753 | 15 | 225 | 19.3 | 32.2 | 0.00 | 0.00 | 0.00 | 1 | 1018.1 |
| 20260506224654 | 15 | 279 | 19.3 | 37.0 | 0.00 | 0.00 | 0.00 | 1 | 1018.1 |
| 20260506224554 | 15 | 283 | 19.3 | 37.0 | 0.00 | 0.00 | 0.00 | 1 | 1018.2 |
| 20260506224454 | 15 | 277 | 17.7 | 37.0 | 0.00 | 0.00 | 0.00 | 1 | 1018.2 |
| 20260506224352 | 15 | 273 | 17.7 | 37.0 | 0.00 | 0.00 | 0.00 | 1 | 1018.2 |
| 20260506224248 | 15 | 263 | 17.7 | 37.0 | 0.00 | 0.00 | 0.00 | 1 | 1018.2 |
| 20260506224148 | 15 | 268 | 16.1 | 37.0 | 0.00 | 0.00 | 0.00 | 1 | 1018.2 |
| 20260506224048 | 15 | 274 | 16.1 | 37.0 | 0.00 | 0.00 | 0.00 | 1 | 1018.3 |
| 20260506223947 | 15 | 306 | 16.1 | 37.0 | 0.00 | 0.00 | 0.00 | 1 | 1018.3 |
| 20260506223848 | 15 | 280 | 17.7 | 37.0 | 0.00 | 0.00 | 0.00 | 1 | 1018.3 |
| 20260506223747 | 15 | 293 | 17.7 | 37.0 | 0.00 | 0.00 | 0.00 | 1 | 1018.3 |
| 20260506223648 | 15 | 288 | 16.1 | 30.6 | 0.00 | 0.00 | 0.00 | 1 | 1018.3 |
| 20260506223548 | 15 | 263 | 17.7 | 32.2 | 0.00 | 0.00 | 0.00 | 1 | 1018.3 |
| 20260506223447 | 15 | 279 | 17.7 | 32.2 | 0.00 | 0.00 | 0.00 | 1 | 1018.4 |
| 20260506223356 | 15 | 313 | 17.7 | 32.2 | 0.00 | 0.00 | 0.00 | 1 | 1018.3 |
| 20260506223352 | 15 | 282 | 17.7 | 32.2 | 0.00 | 0.00 | 0.00 | 1 | 1018.3 |
| 20260506223147 | 15 | 321 | 19.3 | 32.2 | 0.00 | 0.00 | 0.00 | 1 | 1018.3 |
| 20260506223047 | 15 | 291 | 19.3 | 32.2 | 0.00 | 0.00 | 0.00 | 1 | 1018.4 |
| 20260506222948 | 15 | 223 | 19.3 | 32.2 | 0.00 | 0.00 | 0.00 | 1 | 1018.3 |
| 20260506222848 | 15 | 291 | 19.3 | 32.2 | 0.00 | 0.00 | 0.00 | 1 | 1018.3 |
| 20260506222746 | 15 | 280 | 19.3 | 32.2 | 0.00 | 0.00 | 0.00 | 1 | 1018.4 |
| 20260506222646 | 15 | 256 | 19.3 | 32.2 | 0.00 | 0.00 | 0.00 | 1 | 1018.4 |
| 20260506222546 | 15 | 285 | 19.3 | 30.6 | 0.00 | 0.00 | 0.00 | 1 | 1018.4 |
| 20260506222445 | 15 | 245 | 19.3 | 30.6 | 0.00 | 0.00 | 0.00 | 1 | 1018.4 |
| 20260506222345 | 15 | 278 | 19.3 | 30.6 | 0.00 | 0.00 | 0.00 | 1 | 1018.4 |
| 20260506222245 | 15 | 282 | 19.3 | 29.0 | 0.00 | 0.00 | 0.00 | 1 | 1018.4 |
| 20260506222145 | 15 | 277 | 19.3 | 29.0 | 0.00 | 0.00 | 0.00 | 1 | 1018.4 |
| 20260506222038 | 15 | 260 | 19.3 | 32.2 | 0.00 | 0.00 | 0.00 | 1 | 1018.4 |
| 20260506221937 | 15 | 314 | 19.3 | 32.2 | 0.00 | 0.00 | 0.00 | 1 | 1018.5 |
| 20260506221837 | 15 | 283 | 19.3 | 32.2 | 0.00 | 0.00 | 0.00 | 1 | 1018.5 |
| 20260506221738 | 15 | 277 | 19.3 | 32.2 | 0.00 | 0.00 | 0.00 | 1 | 1018.5 |
| 20260506221637 | 15 | 263 | 17.7 | 32.2 | 0.00 | 0.00 | 0.00 | 1 | 1018.5 |
| 20260506221531 | 15 | 300 | 19.3 | 32.2 | 0.00 | 0.00 | 0.00 | 1 | 1018.5 |
| 20260506221440 | 15 | 295 | 17.7 | 32.2 | 0.00 | 0.00 | 0.00 | 1 | 1018.5 |
| 20260506221435 | 15 | 292 | 17.7 | 32.2 | 0.00 | 0.00 | 0.00 | 1 | 1018.5 |
| 20260506221231 | 15 | 278 | 17.7 | 32.2 | 0.00 | 0.00 | 0.00 | 1 | 1018.6 |
| 20260506221131 | 15 | 261 | 17.7 | 32.2 | 0.00 | 0.00 | 0.00 | 1 | 1018.6 |
| 20260506221025 | 15 | 280 | 17.7 | 32.2 | 0.00 | 0.00 | 0.00 | 1 | 1018.6 |
| 20260506220926 | 15 | 269 | 17.7 | 32.2 | 0.00 | 0.00 | 0.00 | 1 | 1018.6 |
| 20260506220826 | 15 | 274 | 17.7 | 32.2 | 0.00 | 0.00 | 0.00 | 1 | 1018.7 |
| 20260506220725 | 15 | 307 | 17.7 | 32.2 | 0.00 | 0.00 | 0.00 | 1 | 1018.7 |
| 20260506220624 | 15 | 252 | 17.7 | 32.2 | 0.00 | 0.00 | 0.00 | 1 | 1018.7 |
| 20260506220520 | 15 | 280 | 17.7 | 32.2 | 0.00 | 0.00 | 0.00 | 1 | 1018.7 |
| 20260506220420 | 15 | 286 | 16.1 | 32.2 | 0.00 | 0.00 | 0.00 | 1 | 1018.6 |
| 20260506220319 | 15 | 251 | 16.1 | 32.2 | 0.00 | 0.00 | 0.00 | 1 | 1018.7 |
| 20260506220219 | 15 | 333 | 16.1 | 32.2 | 0.00 | 0.00 | 0.00 | 1 | 1018.7 |
| 20260506220119 | 15 | 273 | 16.1 | 32.2 | 0.00 | 0.00 | 0.00 | 1 | 1018.7 |
| 20260506220014 | 15 | 270 | 17.7 | 29.0 | 0.00 | 0.00 | 0.00 | 1 | 1018.7 |
| 20260506215914 | 15 | 287 | 17.7 | 29.0 | 0.00 | 0.00 | 0.00 | 1 | 1018.7 |
| 20260506215813 | 15 | 282 | 17.7 | 29.0 | 0.00 | 0.00 | 0.00 | 1 | 1018.7 |
| 20260506215713 | 15 | 274 | 17.7 | 29.0 | 0.00 | 0.00 | 0.00 | 1 | 1018.6 |
| 20260506215613 | 15 | 294 | 17.7 | 29.0 | 0.00 | 0.00 | 0.00 | 1 | 1018.7 |
| 20260506215516 | 15 | 257 | 19.3 | 27.4 | 0.00 | 0.00 | 0.00 | 1 | 1018.8 |
| 20260506215512 | 15 | 275 | 19.3 | 27.4 | 0.00 | 0.00 | 0.00 | 1 | 1018.8 |
| 20260506215307 | 15 | 282 | 19.3 | 27.4 | 0.00 | 0.00 | 0.00 | 1 | 1018.8 |
| 20260506215207 | 15 | 259 | 19.3 | 27.4 | 0.00 | 0.00 | 0.00 | 1 | 1018.8 |
| 20260506215107 | 15 | 254 | 19.3 | 27.4 | 0.00 | 0.00 | 0.00 | 1 | 1018.8 |
| 20260506215001 | 15 | 0 | 17.7 | 27.4 | 0.00 | 0.00 | 0.00 | 1 | 1018.8 |
| 20260506214910 | 15 | 281 | 17.7 | 27.4 | 0.00 | 0.00 | 0.00 | 1 | 1018.8 |
| 20260506214906 | 15 | 281 | 17.7 | 27.4 | 0.00 | 0.00 | 0.00 | 1 | 1018.8 |
| 20260506214701 | 15 | 282 | 17.7 | 27.4 | 0.00 | 0.00 | 0.00 | 1 | 1018.8 |
| 20260506214601 | 15 | 271 | 17.7 | 27.4 | 0.00 | 0.00 | 0.00 | 1 | 1018.8 |
| 20260506214455 | 15 | 259 | 17.7 | 30.6 | 0.00 | 0.00 | 0.00 | 1 | 1018.8 |
| 20260506214355 | 15 | 299 | 16.1 | 30.6 | 0.00 | 0.00 | 0.00 | 1 | 1018.8 |
| 20260506214255 | 15 | 263 | 17.7 | 33.8 | 0.00 | 0.00 | 0.00 | 1 | 1018.8 |
| 20260506214204 | 15 | 250 | 17.7 | 33.8 | 0.00 | 0.00 | 0.00 | 1 | 1018.9 |
| 20260506214159 | 15 | 227 | 17.7 | 33.8 | 0.00 | 0.00 | 0.00 | 1 | 1018.8 |
| 20260506213950 | 15 | 292 | 17.7 | 33.8 | 0.00 | 0.00 | 0.00 | 1 | 1018.9 |
| 20260506213849 | 15 | 302 | 17.7 | 33.8 | 0.00 | 0.00 | 0.00 | 1 | 1018.9 |
| 20260506213749 | 15 | 271 | 17.7 | 33.8 | 0.00 | 0.00 | 0.00 | 1 | 1018.9 |
| 20260506213649 | 15 | 280 | 17.7 | 33.8 | 0.00 | 0.00 | 0.00 | 1 | 1018.9 |
| 20260506213549 | 15 | 259 | 17.7 | 33.8 | 0.00 | 0.00 | 0.00 | 1 | 1019.0 |
| 20260506213443 | 15 | 0 | 16.1 | 33.8 | 0.00 | 0.00 | 0.00 | 1 | 1018.9 |
| 20260506213343 | 15 | 255 | 16.1 | 33.8 | 0.00 | 0.00 | 0.00 | 1 | 1018.9 |
| 20260506213243 | 15 | 292 | 16.1 | 24.1 | 0.00 | 0.00 | 0.00 | 1 | 1018.8 |
| 20260506213144 | 15 | 274 | 16.1 | 24.1 | 0.00 | 0.00 | 0.00 | 1 | 1018.9 |
| 20260506213042 | 15 | 279 | 16.1 | 25.7 | 0.00 | 0.00 | 0.00 | 1 | 1018.9 |
| 20260506212938 | 15 | 278 | 16.1 | 25.7 | 0.00 | 0.00 | 0.00 | 1 | 1018.8 |
| 20260506212838 | 15 | 242 | 16.1 | 25.7 | 0.00 | 0.00 | 0.00 | 1 | 1018.9 |
| 20260506212738 | 15 | 287 | 16.1 | 25.7 | 0.00 | 0.00 | 0.00 | 1 | 1018.9 |
| 20260506212638 | 15 | 264 | 16.1 | 25.7 | 0.00 | 0.00 | 0.00 | 1 | 1019.0 |
| 20260506212540 | 15 | 317 | 16.1 | 27.4 | 0.00 | 0.00 | 0.00 | 1 | 1018.9 |
| 20260506212536 | 15 | 276 | 17.7 | 27.4 | 0.00 | 0.00 | 0.00 | 1 | 1019.0 |
| 20260506212332 | 15 | 273 | 16.1 | 27.4 | 0.00 | 0.00 | 0.00 | 1 | 1019.0 |
| 20260506212231 | 15 | 292 | 16.1 | 27.4 | 0.00 | 0.00 | 0.00 | 1 | 1018.9 |
| 20260506212131 | 15 | 257 | 16.1 | 27.4 | 0.00 | 0.00 | 0.00 | 1 | 1018.9 |
| 20260506212031 | 15 | 284 | 16.1 | 27.4 | 0.00 | 0.00 | 0.00 | 1 | 1019.0 |
| 20260506211926 | 15 | 286 | 16.1 | 27.4 | 0.00 | 0.00 | 0.00 | 1 | 1018.9 |
| 20260506211825 | 15 | 302 | 16.1 | 27.4 | 0.00 | 0.00 | 0.00 | 1 | 1018.9 |
| 20260506211725 | 15 | 271 | 17.7 | 29.0 | 0.00 | 0.00 | 0.00 | 1 | 1018.9 |
| 20260506211625 | 15 | 259 | 17.7 | 29.0 | 0.00 | 0.00 | 0.00 | 1 | 1018.8 |
| 20260506211525 | 15 | 297 | 17.7 | 29.0 | 0.00 | 0.00 | 0.00 | 1 | 1018.8 |
| 20260506211420 | 15 | 278 | 17.7 | 29.0 | 0.00 | 0.00 | 0.00 | 1 | 1018.9 |
| 20260506211319 | 15 | 273 | 17.7 | 29.0 | 0.00 | 0.00 | 0.00 | 1 | 1018.8 |
| 20260506211228 | 15 | 257 | 17.7 | 29.0 | 0.00 | 0.00 | 0.00 | 1 | 1018.9 |
| 20260506211224 | 15 | 256 | 17.7 | 29.0 | 0.00 | 0.00 | 0.00 | 1 | 1019.0 |
| 20260506211019 | 15 | 220 | 16.1 | 29.0 | 0.00 | 0.00 | 0.00 | 1 | 1018.8 |
| 20260506210921 | 15 | 265 | 17.7 | 29.0 | 0.00 | 0.00 | 0.00 | 1 | 1018.8 |
| 20260506210917 | 15 | 251 | 16.1 | 29.0 | 0.00 | 0.00 | 0.00 | 1 | 1018.9 |
| 20260506210714 | 15 | 323 | 16.1 | 29.0 | 0.00 | 0.00 | 0.00 | 1 | 1018.9 |
| 20260506210614 | 15 | 289 | 16.1 | 29.0 | 0.00 | 0.00 | 0.00 | 1 | 1018.9 |
| 20260506210513 | 15 | 252 | 16.1 | 29.0 | 0.00 | 0.00 | 0.00 | 1 | 1018.9 |
| 20260506210408 | 15 | 288 | 16.1 | 29.0 | 0.00 | 0.00 | 0.00 | 1 | 1018.8 |
| 20260506210308 | 15 | 285 | 16.1 | 29.0 | 0.00 | 0.00 | 0.00 | 1 | 1018.9 |
| 20260506210208 | 15 | 269 | 17.7 | 29.0 | 0.00 | 0.00 | 0.00 | 1 | 1019.0 |
| 20260506210107 | 15 | 319 | 17.7 | 29.0 | 0.00 | 0.00 | 0.00 | 1 | 1018.9 |
| 20260506210010 | 15 | 238 | 17.7 | 29.0 | 0.00 | 0.00 | 0.00 | 1 | 1018.9 |
| 20260506210005 | 15 | 312 | 17.7 | 29.0 | 0.00 | 0.00 | 0.00 | 1 | 1018.9 |
| 20260506205814 | 15 | 237 | 17.7 | 29.0 | 0.00 | 0.00 | 0.00 | 1 | 1018.9 |
| 20260506205705 | 15 | 295 | 17.7 | 29.0 | 0.00 | 0.00 | 0.00 | 1 | 1018.9 |
| 20260506205501 | 15 | 300 | 16.1 | 29.0 | 0.00 | 0.00 | 0.00 | 1 | 1018.9 |
| 20260506205355 | 15 | 286 | 16.1 | 29.0 | 0.00 | 0.00 | 0.00 | 1 | 1018.8 |
| 20260506205255 | 15 | 242 | 16.1 | 24.1 | 0.00 | 0.00 | 0.00 | 1 | 1018.9 |
| 20260506205208 | 15 | 279 | 16.1 | 24.1 | 0.00 | 0.00 | 0.00 | 1 | 1018.9 |
| 20260506205059 | 15 | 279 | 16.1 | 24.1 | 0.00 | 0.00 | 0.00 | 1 | 1019.0 |
| 20260506204849 | 15 | 272 | 16.1 | 25.7 | 0.00 | 0.00 | 0.00 | 1 | 1018.9 |
| 20260506204749 | 16 | 256 | 16.1 | 25.7 | 0.00 | 0.00 | 0.00 | 1 | 1019.0 |
| 20260506204649 | 16 | 286 | 16.1 | 25.7 | 0.00 | 0.00 | 0.00 | 1 | 1019.0 |
| 20260506204549 | 16 | 273 | 16.1 | 25.7 | 0.00 | 0.00 | 0.00 | 1 | 1019.0 |
| 20260506204449 | 16 | 257 | 16.1 | 25.7 | 0.00 | 0.00 | 0.00 | 1 | 1019.0 |
| 20260506204343 | 15 | 274 | 16.1 | 25.7 | 0.00 | 0.00 | 0.00 | 1 | 1018.9 |
| 20260506204243 | 16 | 0 | 16.1 | 25.7 | 0.00 | 0.00 | 0.00 | 1 | 1019.0 |
| 20260506204143 | 16 | 258 | 16.1 | 25.7 | 0.00 | 0.00 | 0.00 | 1 | 1019.0 |
| 20260506204044 | 16 | 270 | 16.1 | 25.7 | 0.00 | 0.00 | 0.00 | 1 | 1019.0 |
| 20260506203942 | 16 | 285 | 14.5 | 25.7 | 0.00 | 0.00 | 0.00 | 1 | 1019.0 |
| 20260506203837 | 16 | 287 | 14.5 | 25.7 | 0.00 | 0.00 | 0.00 | 1 | 1019.0 |
| 20260506203738 | 16 | 267 | 16.1 | 24.1 | 0.00 | 0.00 | 0.00 | 1 | 1019.0 |
| 20260506203646 | 15 | 272 | 14.5 | 24.1 | 0.00 | 0.00 | 0.00 | 1 | 1019.0 |
| 20260506203642 | 16 | 292 | 16.1 | 24.1 | 0.00 | 0.00 | 0.00 | 1 | 1019.0 |
| 20260506203440 | 15 | 244 | 16.1 | 24.1 | 0.00 | 0.00 | 0.00 | 1 | 1019.1 |
| 20260506203435 | 15 | 232 | 16.1 | 24.1 | 0.00 | 0.00 | 0.00 | 1 | 1019.1 |
| 20260506203231 | 15 | 318 | 16.1 | 24.1 | 0.00 | 0.00 | 0.00 | 1 | 1019.1 |
| 20260506203131 | 15 | 268 | 14.5 | 24.1 | 0.00 | 0.00 | 0.00 | 1 | 1019.1 |
| 20260506203032 | 15 | 241 | 14.5 | 24.1 | 0.00 | 0.00 | 0.00 | 1 | 1019.1 |
| 20260506202930 | 15 | 282 | 14.5 | 24.1 | 0.00 | 0.00 | 0.00 | 1 | 1019.1 |
| 20260506202825 | 15 | 290 | 14.5 | 24.1 | 0.00 | 0.00 | 0.00 | 1 | 1019.1 |
| 20260506202746 | 16 | 283 | 14.5 | 24.1 | 0.00 | 0.00 | 0.00 | 1 | 1019.1 |
| 20260506202742 | 16 | 261 | 14.5 | 24.1 | 0.00 | 0.00 | 0.00 | 1 | 1019.1 |
| 20260506202634 | 16 | 246 | 14.5 | 24.1 | 0.00 | 0.00 | 0.00 | 1 | 1019.1 |
| 20260506202319 | 16 | 271 | 14.5 | 22.5 | 0.00 | 0.00 | 0.00 | 1 | 1019.1 |
| 20260506202219 | 16 | 298 | 14.5 | 24.1 | 0.00 | 0.00 | 0.00 | 1 | 1019.1 |
| 20260506202119 | 16 | 309 | 14.5 | 24.1 | 0.00 | 0.00 | 0.00 | 1 | 1019.1 |
| 20260506202019 | 16 | 271 | 14.5 | 24.1 | 0.00 | 0.00 | 0.00 | 1 | 1019.1 |
| 20260506201919 | 16 | 262 | 14.5 | 25.7 | 0.00 | 0.00 | 0.00 | 1 | 1019.1 |
| 20260506201813 | 15 | 259 | 14.5 | 25.7 | 0.00 | 0.00 | 0.00 | 1 | 1019.1 |
| 20260506201713 | 15 | 298 | 14.5 | 25.7 | 0.00 | 0.00 | 0.00 | 1 | 1019.2 |
| 20260506201622 | 15 | 355 | 14.5 | 25.7 | 0.00 | 0.00 | 0.00 | 1 | 1019.2 |
| 20260506201618 | 15 | 280 | 14.5 | 25.7 | 0.00 | 0.00 | 0.00 | 1 | 1019.2 |
| 20260506201413 | 15 | 255 | 14.5 | 25.7 | 0.00 | 0.00 | 0.00 | 1 | 1019.2 |
| 20260506201307 | 15 | 261 | 12.9 | 25.7 | 0.00 | 0.00 | 0.00 | 1 | 1019.3 |
| 20260506201207 | 15 | 281 | 12.9 | 25.7 | 0.00 | 0.00 | 0.00 | 1 | 1019.3 |
| 20260506201119 | 15 | 265 | 12.9 | 25.7 | 0.00 | 0.00 | 0.00 | 1 | 1019.3 |
| 20260506201011 | 15 | 0 | 12.9 | 25.7 | 0.00 | 0.00 | 0.00 | 1 | 1019.2 |
| 20260506200820 | 15 | 283 | 12.9 | 22.5 | 0.00 | 0.00 | 0.00 | 1 | 1019.3 |
| 20260506200816 | 15 | 250 | 12.9 | 20.9 | 0.00 | 0.00 | 0.00 | 1 | 1019.3 |
| 20260506200812 | 15 | 269 | 12.9 | 22.5 | 0.00 | 0.00 | 0.00 | 1 | 1019.3 |
| 20260506200503 | 15 | 267 | 12.9 | 20.9 | 0.00 | 0.00 | 0.00 | 1 | 1019.3 |
| 20260506200401 | 15 | 289 | 12.9 | 20.9 | 0.00 | 0.00 | 0.00 | 1 | 1019.3 |
| 20260506200255 | 15 | 296 | 12.9 | 20.9 | 0.00 | 0.00 | 0.00 | 1 | 1019.3 |
| 20260506200155 | 15 | 271 | 12.9 | 20.9 | 0.00 | 0.00 | 0.00 | 1 | 1019.3 |
| 20260506200055 | 15 | 232 | 11.3 | 20.9 | 0.00 | 0.00 | 0.00 | 1 | 1019.3 |
| 20260506195954 | 15 | 257 | 11.3 | 20.9 | 0.00 | 0.00 | 0.00 | 1 | 1019.2 |
| 20260506195855 | 16 | 272 | 11.3 | 20.9 | 0.00 | 0.00 | 0.00 | 1 | 1019.3 |
| 20260506195749 | 16 | 312 | 11.3 | 20.9 | 0.00 | 0.00 | 0.00 | 1 | 1019.3 |
| 20260506195657 | 16 | 294 | 9.7 | 20.9 | 0.00 | 0.00 | 0.00 | 1 | 1019.3 |
| 20260506195653 | 16 | 282 | 11.3 | 20.9 | 0.00 | 0.00 | 0.00 | 1 | 1019.3 |
| 20260506195449 | 16 | 298 | 9.7 | 20.9 | 0.00 | 0.00 | 0.00 | 1 | 1019.3 |
| 20260506195349 | 16 | 287 | 9.7 | 20.9 | 0.00 | 0.00 | 0.00 | 1 | 1019.3 |
| 20260506195243 | 16 | 251 | 9.7 | 20.9 | 0.00 | 0.00 | 0.00 | 1 | 1019.3 |
| 20260506195143 | 16 | 292 | 9.7 | 20.9 | 0.00 | 0.00 | 0.00 | 1 | 1019.4 |
| 20260506195043 | 16 | 277 | 11.3 | 20.9 | 0.00 | 0.00 | 0.00 | 1 | 1019.3 |
| 20260506194943 | 16 | 277 | 9.7 | 19.3 | 0.00 | 0.00 | 0.00 | 1 | 1019.4 |
| 20260506194843 | 16 | 294 | 9.7 | 19.3 | 0.00 | 0.00 | 0.00 | 1 | 1019.4 |
| 20260506194746 | 16 | 222 | 11.3 | 19.3 | 0.00 | 0.00 | 0.00 | 1 | 1019.4 |
| 20260506194741 | 16 | 292 | 9.7 | 19.3 | 0.00 | 0.00 | 0.00 | 1 | 1019.3 |
| 20260506194537 | 16 | 276 | 11.3 | 19.3 | 0.00 | 0.00 | 0.00 | 1 | 1019.4 |
| 20260506194437 | 16 | 269 | 11.3 | 19.3 | 0.00 | 0.00 | 0.00 | 1 | 1019.4 |
| 20260506194337 | 16 | 259 | 11.3 | 19.3 | 0.00 | 0.00 | 0.00 | 1 | 1019.3 |
| 20260506194231 | 16 | 240 | 12.9 | 19.3 | 0.00 | 0.00 | 0.00 | 1 | 1019.4 |
| 20260506194131 | 16 | 291 | 12.9 | 22.5 | 0.00 | 0.00 | 0.00 | 1 | 1019.4 |
| 20260506194031 | 16 | 292 | 11.3 | 22.5 | 0.00 | 0.00 | 0.00 | 1 | 1019.4 |
| 20260506193931 | 16 | 263 | 12.9 | 22.5 | 0.00 | 0.00 | 0.00 | 1 | 1019.4 |
| 20260506193831 | 15 | 257 | 12.9 | 22.5 | 0.00 | 0.00 | 0.00 | 1 | 1019.4 |
| 20260506193733 | 15 | 310 | 12.9 | 22.5 | 0.00 | 0.00 | 0.00 | 1 | 1019.4 |
| 20260506193729 | 15 | 277 | 11.3 | 22.5 | 0.00 | 0.00 | 0.00 | 1 | 1019.4 |
| 20260506193525 | 15 | 311 | 11.3 | 22.5 | 0.00 | 0.00 | 0.00 | 1 | 1019.4 |
| 20260506193426 | 15 | 229 | 11.3 | 22.5 | 0.00 | 0.00 | 0.00 | 1 | 1019.5 |
| 20260506193325 | 15 | 254 | 11.3 | 22.5 | 0.00 | 0.00 | 0.00 | 1 | 1019.4 |
| 20260506193219 | 15 | 198 | 11.3 | 22.5 | 0.00 | 0.00 | 0.00 | 1 | 1019.4 |
| 20260506193119 | 16 | 281 | 11.3 | 19.3 | 0.00 | 0.00 | 0.00 | 1 | 1019.4 |
| 20260506193019 | 15 | 241 | 11.3 | 19.3 | 0.00 | 0.00 | 0.00 | 1 | 1019.4 |
| 20260506192919 | 15 | 238 | 11.3 | 19.3 | 0.00 | 0.00 | 0.00 | 2 | 1019.5 |
| 20260506192819 | 15 | 257 | 11.3 | 19.3 | 0.00 | 0.00 | 0.00 | 1 | 1019.4 |
| 20260506192714 | 16 | 290 | 11.3 | 19.3 | 0.00 | 0.03 | 0.00 | 1 | 1019.5 |
| 20260506192613 | 16 | 268 | 11.3 | 20.9 | 0.00 | 0.03 | 0.00 | 1 | 1019.5 |
| 20260506192513 | 16 | 227 | 11.3 | 20.9 | 0.00 | 0.03 | 0.00 | 1 | 1019.5 |
| 20260506192413 | 15 | 282 | 11.3 | 20.9 | 0.00 | 0.03 | 0.00 | 1 | 1019.5 |
| 20260506192313 | 15 | 285 | 11.3 | 20.9 | 0.00 | 0.03 | 0.00 | 5 | 1019.5 |
| 20260506192216 | 16 | 263 | 9.7 | 20.9 | 0.00 | 0.03 | 0.00 | 2 | 1019.5 |
| 20260506192211 | 16 | 291 | 11.3 | 20.9 | 0.00 | 0.03 | 0.00 | 7 | 1019.5 |
| 20260506192007 | 16 | 275 | 9.7 | 20.9 | 0.00 | 0.03 | 0.00 | 2 | 1019.5 |
| 20260506191907 | 16 | 316 | 9.7 | 20.9 | 0.00 | 0.03 | 0.00 | 3 | 1019.5 |
| 20260506191808 | 16 | 275 | 9.7 | 20.9 | 0.00 | 0.03 | 0.00 | 3 | 1019.5 |
| 20260506191701 | 16 | 236 | 8.0 | 20.9 | 0.00 | 0.03 | 0.00 | 1 | 1019.5 |
| 20260506191601 | 16 | 229 | 8.0 | 17.7 | 0.00 | 0.03 | 0.00 | 1 | 1019.5 |
| 20260506191501 | 16 | 266 | 9.7 | 17.7 | 0.00 | 0.03 | 0.00 | 1 | 1019.5 |
| 20260506191401 | 16 | 253 | 9.7 | 17.7 | 0.00 | 0.03 | 0.00 | 1 | 1019.5 |
| 20260506191259 | 16 | 269 | 9.7 | 17.7 | 0.00 | 0.03 | 0.00 | 1 | 1019.5 |
| 20260506191055 | 16 | 258 | 9.7 | 17.7 | 0.00 | 0.03 | 0.00 | 1 | 1019.5 |
| 20260506190951 | 15 | 239 | 9.7 | 19.3 | 0.00 | 0.03 | 0.00 | 1 | 1019.5 |
| 20260506190850 | 15 | 269 | 9.7 | 19.3 | 0.00 | 0.03 | 0.00 | 1 | 1019.6 |
| 20260506190750 | 15 | 277 | 9.7 | 19.3 | 0.00 | 0.03 | 0.00 | 1 | 1019.6 |
| 20260506190649 | 15 | 273 | 9.7 | 19.3 | 0.00 | 0.03 | 0.00 | 1 | 1019.6 |
| 20260506190549 | 15 | 252 | 11.3 | 19.3 | 0.00 | 0.03 | 0.00 | 1 | 1019.6 |
| 20260506190449 | 15 | 271 | 11.3 | 19.3 | 0.00 | 0.03 | 0.00 | 1 | 1019.6 |
| 20260506190349 | 15 | 245 | 11.3 | 19.3 | 0.00 | 0.03 | 0.00 | 1 | 1019.6 |
| 20260506190249 | 15 | 284 | 11.3 | 19.3 | 0.00 | 0.03 | 0.00 | 1 | 1019.6 |
| 20260506190157 | 15 | 274 | 11.3 | 19.3 | 0.00 | 0.03 | 0.00 | 1 | 1019.6 |
| 20260506190153 | 15 | 279 | 11.3 | 19.3 | 0.00 | 0.03 | 0.00 | 1 | 1019.7 |
| 20260506185949 | 15 | 318 | 11.3 | 19.3 | 0.00 | 0.03 | 0.00 | 1 | 1019.6 |
| 20260506185850 | 15 | 268 | 11.3 | 19.3 | 0.00 | 0.03 | 0.00 | 3 | 1019.6 |
| 20260506185749 | 15 | 262 | 11.3 | 19.3 | 0.00 | 0.03 | 0.00 | 6 | 1019.6 |
| 20260506185649 | 15 | 279 | 11.3 | 19.3 | 0.00 | 0.03 | 0.00 | 7 | 1019.6 |
| 20260506185549 | 15 | 272 | 9.7 | 19.3 | 0.00 | 0.03 | 0.00 | 4 | 1019.6 |
| 20260506185449 | 15 | 238 | 9.7 | 17.7 | 0.00 | 0.03 | 0.00 | 4 | 1019.6 |
| 20260506185349 | 15 | 232 | 9.7 | 17.7 | 0.00 | 0.03 | 0.00 | 3 | 1019.6 |
| 20260506185246 | 15 | 239 | 9.7 | 16.1 | 0.00 | 0.03 | 0.00 | 1 | 1019.6 |
| 20260506185148 | 15 | 231 | 8.0 | 14.5 | 0.00 | 0.03 | 0.00 | 1 | 1019.6 |
| 20260506185046 | 15 | 286 | 9.7 | 16.1 | 0.00 | 0.03 | 0.00 | 1 | 1019.6 |
| 20260506184941 | 15 | 261 | 9.7 | 16.1 | 0.00 | 0.03 | 0.00 | 1 | 1019.6 |
| 20260506184841 | 15 | 275 | 9.7 | 16.1 | 0.00 | 0.03 | 0.00 | 1 | 1019.6 |
| 20260506184741 | 15 | 278 | 9.7 | 16.1 | 0.00 | 0.03 | 0.00 | 1 | 1019.6 |
| 20260506184641 | 15 | 248 | 9.7 | 16.1 | 0.00 | 0.03 | 0.00 | 1 | 1019.6 |
| 20260506184541 | 15 | 238 | 9.7 | 16.1 | 0.00 | 0.03 | 0.00 | 1 | 1019.5 |
| 20260506184437 | 15 | 245 | 9.7 | 17.7 | 0.00 | 0.03 | 0.00 | 1 | 1019.6 |
| 20260506184337 | 15 | 240 | 9.7 | 19.3 | 0.00 | 0.03 | 0.00 | 1 | 1019.6 |
| 20260506184246 | 15 | 258 | 9.7 | 19.3 | 0.00 | 0.03 | 0.00 | 1 | 1019.6 |
| 20260506184241 | 15 | 256 | 9.7 | 19.3 | 0.00 | 0.03 | 0.00 | 1 | 1019.6 |
| 20260506184037 | 15 | 245 | 9.7 | 19.3 | 0.00 | 0.03 | 0.00 | 1 | 1019.6 |
| 20260506183937 | 15 | 277 | 9.7 | 19.3 | 0.00 | 0.03 | 0.00 | 1 | 1019.6 |
| 20260506183837 | 15 | 261 | 9.7 | 19.3 | 0.00 | 0.03 | 0.00 | 1 | 1019.6 |
| 20260506183736 | 15 | 250 | 9.7 | 19.3 | 0.00 | 0.03 | 0.00 | 1 | 1019.6 |
| 20260506183637 | 15 | 274 | 9.7 | 19.3 | 0.00 | 0.03 | 0.00 | 1 | 1019.6 |
| 20260506183537 | 15 | 232 | 9.7 | 19.3 | 0.00 | 0.03 | 0.00 | 1 | 1019.6 |
| 20260506183437 | 15 | 210 | 8.0 | 19.3 | 0.00 | 0.03 | 0.00 | 1 | 1019.5 |
| 20260506183337 | 15 | 229 | 8.0 | 16.1 | 0.00 | 0.03 | 0.00 | 1 | 1019.6 |
| 20260506183237 | 15 | 234 | 8.0 | 14.5 | 0.00 | 0.03 | 0.00 | 1 | 1019.6 |
| 20260506183137 | 15 | 219 | 8.0 | 14.5 | 0.00 | 0.03 | 0.00 | 1 | 1019.6 |
| 20260506183037 | 15 | 241 | 8.0 | 14.5 | 0.00 | 0.03 | 0.00 | 1 | 1019.6 |
| 20260506182937 | 15 | 215 | 8.0 | 14.5 | 0.00 | 0.03 | 0.00 | 1 | 1019.6 |
| 20260506182837 | 15 | 252 | 8.0 | 14.5 | 0.00 | 0.03 | 0.00 | 1 | 1019.6 |
| 20260506182732 | 15 | 246 | 8.0 | 14.5 | 0.00 | 0.03 | 0.00 | 1 | 1019.6 |
| 20260506182632 | 15 | 278 | 8.0 | 14.5 | 0.00 | 0.03 | 0.00 | 1 | 1019.6 |
| 20260506182533 | 15 | 271 | 8.0 | 14.5 | 0.00 | 0.03 | 0.00 | 1 | 1019.6 |
| 20260506182433 | 15 | 327 | 8.0 | 14.5 | 0.00 | 0.03 | 0.00 | 1 | 1019.6 |
| 20260506182333 | 15 | 284 | 8.0 | 14.5 | 0.00 | 0.03 | 0.00 | 1 | 1019.6 |
| 20260506182233 | 15 | 288 | 8.0 | 14.5 | 0.00 | 0.03 | 0.00 | 1 | 1019.6 |
| 20260506182132 | 15 | 293 | 8.0 | 14.5 | 0.00 | 0.03 | 0.00 | 1 | 1019.7 |
| 20260506182033 | 15 | 257 | 9.7 | 14.5 | 0.00 | 0.03 | 0.00 | 1 | 1019.7 |
| 20260506181933 | 15 | 226 | 9.7 | 14.5 | 0.00 | 0.03 | 0.00 | 1 | 1019.6 |
| 20260506181833 | 15 | 238 | 9.7 | 16.1 | 0.00 | 0.03 | 0.00 | 1 | 1019.6 |
| 20260506181733 | 15 | 275 | 9.7 | 16.1 | 0.00 | 0.03 | 0.00 | 1 | 1019.6 |
| 20260506181634 | 15 | 277 | 9.7 | 16.1 | 0.00 | 0.03 | 0.00 | 1 | 1019.6 |
| 20260506181541 | 15 | 257 | 9.7 | 16.1 | 0.00 | 0.03 | 0.00 | 1 | 1019.6 |
| 20260506181537 | 15 | 271 | 9.7 | 16.1 | 0.00 | 0.03 | 0.00 | 1 | 1019.6 |
| 20260506181332 | 15 | 227 | 9.7 | 16.1 | 0.00 | 0.03 | 0.00 | 1 | 1019.6 |
| 20260506181232 | 15 | 243 | 9.7 | 16.1 | 0.00 | 0.03 | 0.00 | 1 | 1019.6 |
| 20260506181132 | 15 | 253 | 9.7 | 16.1 | 0.00 | 0.03 | 0.00 | 1 | 1019.6 |
| 20260506181032 | 15 | 246 | 9.7 | 16.1 | 0.00 | 0.03 | 0.00 | 1 | 1019.6 |
| 20260506180933 | 15 | 257 | 9.7 | 16.1 | 0.00 | 0.03 | 0.00 | 1 | 1019.6 |
| 20260506180833 | 15 | 255 | 9.7 | 16.1 | 0.00 | 0.03 | 0.00 | 1 | 1019.6 |
| 20260506180733 | 15 | 284 | 9.7 | 17.7 | 0.00 | 0.03 | 0.00 | 1 | 1019.6 |
| 20260506180632 | 15 | 254 | 9.7 | 17.7 | 0.00 | 0.03 | 0.00 | 1 | 1019.6 |
| 20260506180533 | 15 | 269 | 9.7 | 17.7 | 0.00 | 0.03 | 0.00 | 1 | 1019.6 |
| 20260506180433 | 15 | 288 | 9.7 | 17.7 | 0.00 | 0.03 | 0.00 | 1 | 1019.6 |
| 20260506180327 | 15 | 203 | 9.7 | 17.7 | 0.00 | 0.03 | 0.00 | 1 | 1019.6 |
| 20260506180226 | 15 | 236 | 8.0 | 17.7 | 0.00 | 0.03 | 0.00 | 1 | 1019.5 |
| 20260506180127 | 15 | 267 | 8.0 | 17.7 | 0.00 | 0.03 | 0.00 | 1 | 1019.6 |
| 20260506180027 | 15 | 236 | 8.0 | 17.7 | 0.00 | 0.03 | 0.00 | 1 | 1019.5 |
| 20260506175927 | 15 | 254 | 8.0 | 17.7 | 0.00 | 0.03 | 0.00 | 1 | 1019.5 |
| 20260506175827 | 15 | 243 | 8.0 | 16.1 | 0.00 | 0.03 | 0.00 | 1 | 1019.5 |
| 20260506175727 | 15 | 269 | 6.4 | 14.5 | 0.00 | 0.03 | 0.00 | 1 | 1019.5 |
| 20260506175626 | 15 | 279 | 8.0 | 14.5 | 0.00 | 0.03 | 0.00 | 1 | 1019.5 |
| 20260506175527 | 15 | 315 | 8.0 | 14.5 | 0.00 | 0.03 | 0.00 | 1 | 1019.5 |
| 20260506175427 | 15 | 276 | 8.0 | 14.5 | 0.00 | 0.03 | 0.00 | 1 | 1019.5 |
| 20260506175327 | 15 | 281 | 6.4 | 14.5 | 0.00 | 0.03 | 0.00 | 1 | 1019.4 |
| 20260506175227 | 15 | 215 | 8.0 | 14.5 | 0.00 | 0.03 | 0.00 | 1 | 1019.5 |
| 20260506175123 | 15 | 225 | 8.0 | 16.1 | 0.00 | 0.03 | 0.00 | 1 | 1019.5 |
| 20260506175023 | 15 | 300 | 8.0 | 16.1 | 0.00 | 0.03 | 0.00 | 1 | 1019.5 |
| 20260506174923 | 15 | 259 | 8.0 | 16.1 | 0.00 | 0.03 | 0.00 | 1 | 1019.5 |
| 20260506174823 | 15 | 273 | 8.0 | 16.1 | 0.00 | 0.03 | 0.00 | 1 | 1019.5 |
| 20260506174723 | 15 | 300 | 8.0 | 16.1 | 0.00 | 0.03 | 0.00 | 1 | 1019.6 |
| 20260506174623 | 15 | 250 | 8.0 | 16.1 | 0.00 | 0.03 | 0.00 | 1 | 1019.6 |
| 20260506174522 | 15 | 220 | 8.0 | 16.1 | 0.00 | 0.03 | 0.00 | 1 | 1019.5 |
| 20260506174423 | 15 | 219 | 8.0 | 16.1 | 0.00 | 0.03 | 0.00 | 1 | 1019.6 |
| 20260506174321 | 15 | 243 | 8.0 | 16.1 | 0.00 | 0.03 | 0.00 | 1 | 1019.5 |
| 20260506174221 | 15 | 290 | 8.0 | 16.1 | 0.00 | 0.03 | 0.00 | 1 | 1019.5 |
| 20260506174121 | 15 | 0 | 8.0 | 16.1 | 0.00 | 0.03 | 0.00 | 1 | 1019.5 |
| 20260506174021 | 15 | 325 | 8.0 | 14.5 | 0.00 | 0.03 | 0.00 | 1 | 1019.5 |
| 20260506173917 | 15 | 278 | 8.0 | 14.5 | 0.00 | 0.03 | 0.00 | 1 | 1019.5 |
| 20260506173817 | 15 | 281 | 8.0 | 14.5 | 0.00 | 0.03 | 0.00 | 1 | 1019.5 |
| 20260506173717 | 15 | 276 | 8.0 | 14.5 | 0.00 | 0.03 | 0.00 | 1 | 1019.5 |
| 20260506173617 | 15 | 260 | 8.0 | 14.5 | 0.00 | 0.03 | 0.00 | 1 | 1019.5 |
| 20260506173517 | 15 | 217 | 8.0 | 14.5 | 0.00 | 0.03 | 0.00 | 1 | 1019.5 |
| 20260506173417 | 15 | 237 | 8.0 | 14.5 | 0.00 | 0.03 | 0.00 | 1 | 1019.5 |
| 20260506173317 | 15 | 248 | 9.7 | 19.3 | 0.00 | 0.03 | 0.00 | 1 | 1019.5 |
| 20260506173217 | 15 | 281 | 9.7 | 19.3 | 0.00 | 0.03 | 0.00 | 1 | 1019.4 |
| 20260506173117 | 15 | 281 | 9.7 | 19.3 | 0.00 | 0.03 | 0.00 | 1 | 1019.5 |
| 20260506173017 | 15 | 292 | 9.7 | 19.3 | 0.00 | 0.03 | 0.00 | 1 | 1019.5 |
| 20260506172917 | 15 | 270 | 9.7 | 19.3 | 0.00 | 0.03 | 0.00 | 1 | 1019.5 |
| 20260506172816 | 15 | 263 | 9.7 | 19.3 | 0.00 | 0.03 | 0.00 | 1 | 1019.5 |
| 20260506172716 | 15 | 282 | 9.7 | 19.3 | 0.00 | 0.03 | 0.00 | 1 | 1019.5 |
| 20260506172617 | 15 | 0 | 9.7 | 19.3 | 0.00 | 0.03 | 0.00 | 1 | 1019.5 |
| 20260506172517 | 15 | 263 | 9.7 | 19.3 | 0.00 | 0.03 | 0.00 | 1 | 1019.6 |
| 20260506172417 | 15 | 275 | 9.7 | 19.3 | 0.00 | 0.03 | 0.00 | 1 | 1019.5 |
| 20260506172317 | 15 | 212 | 8.0 | 16.1 | 0.00 | 0.03 | 0.00 | 1 | 1019.5 |
| 20260506172217 | 15 | 230 | 8.0 | 16.1 | 0.00 | 0.03 | 0.00 | 1 | 1019.5 |
| 20260506172116 | 15 | 213 | 8.0 | 16.1 | 0.00 | 0.03 | 0.00 | 1 | 1019.5 |
| 20260506172013 | 15 | 265 | 8.0 | 16.1 | 0.00 | 0.03 | 0.00 | 1 | 1019.5 |
| 20260506171913 | 15 | 276 | 8.0 | 16.1 | 0.00 | 0.03 | 0.00 | 1 | 1019.5 |
| 20260506171812 | 15 | 224 | 8.0 | 16.1 | 0.00 | 0.03 | 0.00 | 1 | 1019.6 |
| 20260506171712 | 15 | 290 | 8.0 | 16.1 | 0.00 | 0.03 | 0.00 | 1 | 1019.5 |
| 20260506171612 | 15 | 263 | 8.0 | 16.1 | 0.00 | 0.03 | 0.00 | 1 | 1019.5 |
| 20260506171513 | 15 | 273 | 8.0 | 16.1 | 0.00 | 0.03 | 0.00 | 1 | 1019.5 |
| 20260506171413 | 15 | 281 | 8.0 | 16.1 | 0.00 | 0.03 | 0.00 | 1 | 1019.5 |
| 20260506171313 | 15 | 248 | 8.0 | 16.1 | 0.00 | 0.03 | 0.00 | 1 | 1019.5 |
| 20260506171212 | 15 | 293 | 8.0 | 14.5 | 0.00 | 0.03 | 0.00 | 1 | 1019.5 |
| 20260506171112 | 14 | 257 | 8.0 | 14.5 | 0.00 | 0.03 | 0.00 | 1 | 1019.5 |
| 20260506171012 | 14 | 286 | 8.0 | 14.5 | 0.00 | 0.03 | 0.00 | 1 | 1019.5 |
| 20260506170913 | 14 | 273 | 8.0 | 14.5 | 0.00 | 0.03 | 0.00 | 1 | 1019.6 |
| 20260506170813 | 14 | 258 | 8.0 | 14.5 | 0.00 | 0.03 | 0.00 | 1 | 1019.6 |
| 20260506170713 | 14 | 228 | 8.0 | 12.9 | 0.00 | 0.03 | 0.00 | 1 | 1019.6 |
| 20260506170612 | 14 | 245 | 8.0 | 14.5 | 0.00 | 0.03 | 0.00 | 1 | 1019.6 |
| 20260506170512 | 14 | 271 | 6.4 | 14.5 | 0.00 | 0.03 | 0.00 | 1 | 1019.6 |
| 20260506170413 | 14 | 240 | 6.4 | 14.5 | 0.00 | 0.03 | 0.00 | 1 | 1019.6 |
| 20260506170313 | 14 | 232 | 6.4 | 14.5 | 0.00 | 0.03 | 0.00 | 1 | 1019.6 |
| 20260506170213 | 14 | 244 | 6.4 | 14.5 | 0.00 | 0.03 | 0.00 | 1 | 1019.6 |
| 20260506170117 | 14 | 267 | 6.4 | 14.5 | 0.00 | 0.03 | 0.00 | 1 | 1019.6 |
| 20260506170113 | 14 | 290 | 6.4 | 14.5 | 0.00 | 0.03 | 0.00 | 1 | 1019.6 |
| 20260506165917 | 14 | 263 | 6.4 | 14.5 | 0.00 | 0.03 | 0.00 | 1 | 1019.6 |
| 20260506165913 | 14 | 284 | 6.4 | 14.5 | 0.00 | 0.03 | 0.00 | 1 | 1019.6 |
| 20260506165709 | 14 | 342 | 6.4 | 14.5 | 0.00 | 0.03 | 0.00 | 1 | 1019.5 |
| 20260506165609 | 14 | 270 | 6.4 | 14.5 | 0.00 | 0.03 | 0.00 | 1 | 1019.5 |
| 20260506165508 | 14 | 263 | 6.4 | 14.5 | 0.00 | 0.03 | 0.00 | 1 | 1019.5 |
| 20260506165408 | 14 | 256 | 6.4 | 14.5 | 0.00 | 0.03 | 0.00 | 1 | 1019.5 |
| 20260506165317 | 14 | 253 | 8.0 | 14.5 | 0.00 | 0.03 | 0.00 | 1 | 1019.6 |
| 20260506165313 | 14 | 279 | 6.4 | 14.5 | 0.00 | 0.03 | 0.00 | 1 | 1019.5 |
| 20260506165108 | 14 | 270 | 8.0 | 14.5 | 0.00 | 0.03 | 0.00 | 1 | 1019.6 |
| 20260506165008 | 14 | 267 | 8.0 | 14.5 | 0.00 | 0.03 | 0.00 | 1 | 1019.6 |
| 20260506164909 | 14 | 237 | 8.0 | 14.5 | 0.00 | 0.03 | 0.00 | 1 | 1019.6 |
| 20260506164809 | 14 | 246 | 8.0 | 14.5 | 0.00 | 0.03 | 0.00 | 1 | 1019.5 |
| 20260506164709 | 14 | 279 | 8.0 | 14.5 | 0.00 | 0.03 | 0.00 | 1 | 1019.6 |
| 20260506164608 | 14 | 272 | 8.0 | 14.5 | 0.00 | 0.03 | 0.00 | 1 | 1019.6 |
| 20260506164508 | 14 | 272 | 8.0 | 14.5 | 0.00 | 0.03 | 0.00 | 1 | 1019.5 |
| 20260506164408 | 14 | 279 | 8.0 | 14.5 | 0.00 | 0.03 | 0.00 | 1 | 1019.5 |
| 20260506164309 | 14 | 263 | 8.0 | 14.5 | 0.00 | 0.03 | 0.00 | 1 | 1019.5 |
| 20260506164209 | 14 | 290 | 8.0 | 12.9 | 0.00 | 0.03 | 0.00 | 1 | 1019.6 |
| 20260506164117 | 14 | 275 | 8.0 | 12.9 | 0.00 | 0.03 | 0.00 | 1 | 1019.5 |
| 20260506164113 | 14 | 279 | 8.0 | 12.9 | 0.00 | 0.03 | 0.00 | 1 | 1019.5 |
| 20260506163907 | 14 | 269 | 8.0 | 12.9 | 0.00 | 0.03 | 0.00 | 1 | 1019.5 |
| 20260506163806 | 14 | 263 | 6.4 | 12.9 | 0.00 | 0.03 | 0.00 | 1 | 1019.5 |
| 20260506163706 | 14 | 258 | 6.4 | 12.9 | 0.00 | 0.03 | 0.00 | 1 | 1019.5 |
| 20260506163606 | 14 | 228 | 6.4 | 12.9 | 0.00 | 0.03 | 0.00 | 1 | 1019.5 |
| 20260506163506 | 14 | 276 | 6.4 | 12.9 | 0.00 | 0.03 | 0.00 | 1 | 1019.5 |
| 20260506163407 | 14 | 278 | 6.4 | 12.9 | 0.00 | 0.03 | 0.00 | 1 | 1019.5 |
| 20260506163307 | 14 | 251 | 6.4 | 12.9 | 0.00 | 0.03 | 0.00 | 1 | 1019.5 |
| 20260506163207 | 14 | 250 | 6.4 | 12.9 | 0.00 | 0.03 | 0.00 | 1 | 1019.5 |
| 20260506163107 | 14 | 243 | 4.8 | 12.9 | 0.00 | 0.03 | 0.00 | 1 | 1019.5 |
| 20260506163103 | 14 | 234 | 4.8 | 12.9 | 0.00 | 0.03 | 0.00 | 1 | 1019.5 |
| 20260506162859 | 14 | 225 | 4.8 | 12.9 | 0.00 | 0.03 | 0.00 | 1 | 1019.5 |
| 20260506162759 | 14 | 249 | 4.8 | 11.3 | 0.00 | 0.03 | 0.00 | 1 | 1019.5 |
| 20260506162658 | 14 | 282 | 4.8 | 11.3 | 0.00 | 0.03 | 0.00 | 1 | 1019.5 |
| 20260506162558 | 14 | 254 | 4.8 | 11.3 | 0.00 | 0.03 | 0.00 | 1 | 1019.5 |
| 20260506162455 | 14 | 279 | 4.8 | 11.3 | 0.00 | 0.03 | 0.00 | 1 | 1019.4 |
| 20260506162355 | 14 | 269 | 4.8 | 11.3 | 0.00 | 0.03 | 0.00 | 1 | 1019.5 |
| 20260506162255 | 14 | 224 | 3.2 | 11.3 | 0.00 | 0.03 | 0.00 | 1 | 1019.5 |
| 20260506162153 | 13 | 268 | 3.2 | 11.3 | 0.00 | 0.03 | 0.00 | 1 | 1019.5 |
| 20260506162050 | 13 | 268 | 4.8 | 11.3 | 0.00 | 0.03 | 0.00 | 1 | 1019.5 |
| 20260506161947 | 13 | 266 | 4.8 | 11.3 | 0.00 | 0.03 | 0.00 | 1 | 1019.5 |
| 20260506161846 | 13 | 277 | 4.8 | 12.9 | 0.00 | 0.03 | 0.00 | 1 | 1019.5 |
| 20260506161747 | 13 | 283 | 4.8 | 12.9 | 0.00 | 0.03 | 0.00 | 1 | 1019.5 |
| 20260506161646 | 13 | 319 | 4.8 | 12.9 | 0.00 | 0.03 | 0.00 | 1 | 1019.5 |
| 20260506161544 | 13 | 279 | 4.8 | 12.9 | 0.00 | 0.03 | 0.00 | 1 | 1019.6 |
| 20260506161440 | 13 | 263 | 4.8 | 12.9 | 0.00 | 0.03 | 0.00 | 1 | 1019.6 |
| 20260506161340 | 13 | 277 | 6.4 | 12.9 | 0.00 | 0.03 | 0.00 | 1 | 1019.6 |
| 20260506161241 | 13 | 277 | 6.4 | 12.9 | 0.00 | 0.03 | 0.00 | 1 | 1019.6 |
| 20260506161140 | 13 | 303 | 6.4 | 12.9 | 0.00 | 0.03 | 0.00 | 1 | 1019.5 |
| 20260506161038 | 13 | 257 | 6.4 | 12.9 | 0.00 | 0.03 | 0.00 | 1 | 1019.5 |
| 20260506160933 | 13 | 244 | 6.4 | 12.9 | 0.00 | 0.03 | 0.00 | 1 | 1019.5 |
| 20260506160833 | 13 | 225 | 6.4 | 12.9 | 0.00 | 0.03 | 0.00 | 1 | 1019.5 |
| 20260506160733 | 13 | 254 | 6.4 | 12.9 | 0.00 | 0.03 | 0.00 | 1 | 1019.5 |
| 20260506160632 | 13 | 279 | 6.4 | 12.9 | 0.00 | 0.03 | 0.00 | 1 | 1019.5 |
| 20260506160532 | 13 | 262 | 6.4 | 12.9 | 0.00 | 0.03 | 0.00 | 1 | 1019.5 |
| 20260506160425 | 13 | 257 | 6.4 | 12.9 | 0.00 | 0.03 | 0.00 | 1 | 1019.5 |
| 20260506160324 | 13 | 257 | 4.8 | 12.9 | 0.00 | 0.03 | 0.00 | 1 | 1019.4 |
| 20260506160224 | 13 | 269 | 4.8 | 12.9 | 0.00 | 0.03 | 0.00 | 1 | 1019.4 |
| 20260506160125 | 13 | 290 | 6.4 | 12.9 | 0.00 | 0.03 | 0.00 | 1 | 1019.4 |
| 20260506160024 | 13 | 264 | 4.8 | 11.3 | 0.00 | 0.03 | 0.00 | 1 | 1019.5 |
| 20260506155923 | 13 | 236 | 4.8 | 11.3 | 0.00 | 0.03 | 0.00 | 1 | 1019.5 |
| 20260506155822 | 13 | 231 | 4.8 | 11.3 | 0.00 | 0.03 | 0.00 | 1 | 1019.5 |
| 20260506155723 | 13 | 223 | 4.8 | 11.3 | 0.00 | 0.03 | 0.00 | 1 | 1019.5 |
| 20260506155621 | 13 | 261 | 4.8 | 11.3 | 0.00 | 0.03 | 0.00 | 1 | 1019.5 |
| 20260506155516 | 13 | 264 | 4.8 | 11.3 | 0.00 | 0.03 | 0.00 | 1 | 1019.4 |
| 20260506155411 | 13 | 254 | 4.8 | 9.7 | 0.00 | 0.03 | 0.00 | 1 | 1019.5 |
| 20260506155311 | 13 | 280 | 4.8 | 9.7 | 0.00 | 0.03 | 0.00 | 1 | 1019.5 |
| 20260506155211 | 13 | 288 | 4.8 | 9.7 | 0.00 | 0.03 | 0.00 | 1 | 1019.5 |
| 20260506155110 | 13 | 277 | 4.8 | 9.7 | 0.00 | 0.03 | 0.00 | 1 | 1019.5 |
| 20260506155010 | 13 | 241 | 4.8 | 9.7 | 0.00 | 0.03 | 0.00 | 1 | 1019.5 |
| 20260506154909 | 13 | 239 | 4.8 | 9.7 | 0.00 | 0.03 | 0.00 | 1 | 1019.4 |
| 20260506154808 | 13 | 255 | 4.8 | 9.7 | 0.00 | 0.03 | 0.00 | 1 | 1019.4 |
| 20260506154706 | 13 | 244 | 3.2 | 9.7 | 0.00 | 0.03 | 0.00 | 1 | 1019.5 |
| 20260506154606 | 13 | 273 | 3.2 | 9.7 | 0.00 | 0.03 | 0.00 | 1 | 1019.5 |
| 20260506154504 | 13 | 271 | 3.2 | 9.7 | 0.00 | 0.03 | 0.00 | 1 | 1019.5 |
| 20260506154358 | 13 | 287 | 3.2 | 9.7 | 0.00 | 0.03 | 0.00 | 1 | 1019.5 |
| 20260506154258 | 13 | 281 | 3.2 | 11.3 | 0.00 | 0.03 | 0.00 | 1 | 1019.5 |
| 20260506154211 | 13 | 281 | 3.2 | 11.3 | 0.00 | 0.03 | 0.00 | 1 | 1019.5 |
| 20260506154102 | 13 | 296 | 3.2 | 11.3 | 0.00 | 0.03 | 0.00 | 1 | 1019.5 |
| 20260506153854 | 13 | 295 | 3.2 | 11.3 | 0.00 | 0.03 | 0.00 | 1 | 1019.5 |
| 20260506153754 | 13 | 279 | 3.2 | 11.3 | 0.00 | 0.03 | 0.00 | 1 | 1019.5 |
| 20260506153654 | 13 | 278 | 3.2 | 11.3 | 0.00 | 0.03 | 0.00 | 1 | 1019.5 |
| 20260506153555 | 13 | 284 | 3.2 | 11.3 | 0.00 | 0.03 | 0.00 | 1 | 1019.4 |
| 20260506153452 | 13 | 283 | 4.8 | 11.3 | 0.00 | 0.03 | 0.00 | 1 | 1019.4 |
| 20260506153346 | 13 | 283 | 3.2 | 11.3 | 0.00 | 0.03 | 0.00 | 1 | 1019.4 |
| 20260506153247 | 13 | 278 | 3.2 | 9.7 | 0.00 | 0.03 | 0.00 | 1 | 1019.4 |
| 20260506153147 | 13 | 300 | 3.2 | 9.7 | 0.00 | 0.03 | 0.00 | 1 | 1019.4 |
| 20260506153054 | 13 | 300 | 3.2 | 9.7 | 0.00 | 0.03 | 0.00 | 1 | 1019.4 |
| 20260506153050 | 13 | 275 | 3.2 | 9.7 | 0.00 | 0.03 | 0.00 | 1 | 1019.4 |
| 20260506152842 | 13 | 271 | 3.2 | 9.7 | 0.00 | 0.03 | 0.00 | 1 | 1019.4 |
| 20260506152748 | 13 | 277 | 3.2 | 9.7 | 0.00 | 0.03 | 0.00 | 1 | 1019.4 |
| 20260506152744 | 13 | 290 | 3.2 | 9.7 | 0.00 | 0.03 | 0.00 | 1 | 1019.4 |
| 20260506152541 | 13 | 257 | 3.2 | 9.7 | 0.00 | 0.03 | 0.00 | 1 | 1019.4 |
| 20260506152440 | 13 | 273 | 3.2 | 9.7 | 0.00 | 0.03 | 0.00 | 1 | 1019.4 |
| 20260506152341 | 13 | 273 | 4.8 | 9.7 | 0.00 | 0.03 | 0.00 | 1 | 1019.4 |
| 20260506152239 | 13 | 273 | 4.8 | 9.7 | 0.00 | 0.03 | 0.00 | 1 | 1019.4 |
| 20260506152139 | 13 | 273 | 4.8 | 9.7 | 0.00 | 0.03 | 0.00 | 1 | 1019.4 |
| 20260506152039 | 13 | 289 | 4.8 | 9.7 | 0.00 | 0.03 | 0.00 | 1 | 1019.4 |
| 20260506151939 | 13 | 266 | 4.8 | 9.7 | 0.00 | 0.03 | 0.00 | 1 | 1019.4 |
| 20260506151839 | 13 | 256 | 6.4 | 9.7 | 0.00 | 0.03 | 0.00 | 1 | 1019.4 |
| 20260506151738 | 13 | 258 | 6.4 | 12.9 | 0.00 | 0.03 | 0.00 | 1 | 1019.3 |
| 20260506151638 | 13 | 253 | 4.8 | 12.9 | 0.00 | 0.03 | 0.00 | 1 | 1019.3 |
| 20260506151539 | 13 | 279 | 4.8 | 12.9 | 0.00 | 0.03 | 0.00 | 1 | 1019.3 |
| 20260506151439 | 13 | 263 | 4.8 | 12.9 | 0.00 | 0.03 | 0.00 | 1 | 1019.4 |
| 20260506151336 | 13 | 276 | 4.8 | 12.9 | 0.00 | 0.03 | 0.00 | 1 | 1019.3 |
| 20260506151236 | 13 | 273 | 4.8 | 12.9 | 0.00 | 0.03 | 0.00 | 1 | 1019.3 |
| 20260506151137 | 13 | 275 | 4.8 | 12.9 | 0.00 | 0.03 | 0.00 | 1 | 1019.3 |
| 20260506151037 | 13 | 250 | 4.8 | 12.9 | 0.00 | 0.03 | 0.00 | 1 | 1019.3 |
| 20260506150934 | 13 | 281 | 4.8 | 12.9 | 0.00 | 0.03 | 0.00 | 1 | 1019.3 |
| 20260506150841 | 13 | 263 | 3.2 | 9.7 | 0.00 | 0.03 | 0.00 | 1 | 1019.3 |
| 20260506150836 | 13 | 281 | 3.2 | 12.9 | 0.00 | 0.03 | 0.00 | 1 | 1019.3 |
| 20260506150632 | 13 | 299 | 4.8 | 9.7 | 0.00 | 0.03 | 0.00 | 1 | 1019.3 |
| 20260506150532 | 13 | 283 | 4.8 | 12.9 | 0.00 | 0.03 | 0.00 | 1 | 1019.3 |
| 20260506150432 | 13 | 275 | 4.8 | 12.9 | 0.00 | 0.03 | 0.00 | 1 | 1019.3 |
| 20260506150333 | 13 | 309 | 4.8 | 12.9 | 0.00 | 0.03 | 0.00 | 1 | 1019.3 |
| 20260506150232 | 13 | 293 | 4.8 | 12.9 | 0.00 | 0.03 | 0.00 | 1 | 1019.3 |
| 20260506150128 | 13 | 266 | 6.4 | 12.9 | 0.00 | 0.03 | 0.00 | 1 | 1019.3 |
| 20260506150026 | 13 | 276 | 6.4 | 12.9 | 0.00 | 0.03 | 0.00 | 1 | 1019.3 |
| 20260506145926 | 13 | 283 | 6.4 | 12.9 | 0.00 | 0.03 | 0.00 | 1 | 1019.2 |
| 20260506145826 | 13 | 297 | 6.4 | 12.9 | 0.00 | 0.03 | 0.00 | 1 | 1019.2 |
| 20260506145726 | 13 | 294 | 6.4 | 12.9 | 0.00 | 0.03 | 0.00 | 1 | 1019.2 |
| 20260506145624 | 13 | 284 | 6.4 | 12.9 | 0.00 | 0.03 | 0.00 | 1 | 1019.2 |
| 20260506145533 | 13 | 272 | 4.8 | 12.9 | 0.00 | 0.03 | 0.00 | 1 | 1019.2 |
| 20260506145529 | 13 | 283 | 6.4 | 12.9 | 0.00 | 0.03 | 0.00 | 1 | 1019.3 |
| 20260506145329 | 13 | 288 | 4.8 | 12.9 | 0.00 | 0.03 | 0.00 | 1 | 1019.2 |
| 20260506145324 | 13 | 273 | 4.8 | 12.9 | 0.00 | 0.03 | 0.00 | 1 | 1019.2 |
| 20260506145114 | 13 | 274 | 4.8 | 12.9 | 0.00 | 0.03 | 0.00 | 1 | 1019.2 |
| 20260506145014 | 13 | 281 | 4.8 | 12.9 | 0.00 | 0.03 | 0.00 | 1 | 1019.2 |
| 20260506144914 | 13 | 277 | 4.8 | 12.9 | 0.00 | 0.03 | 0.00 | 1 | 1019.2 |
| 20260506144815 | 13 | 285 | 4.8 | 12.9 | 0.00 | 0.03 | 0.00 | 1 | 1019.2 |
| 20260506144714 | 13 | 286 | 4.8 | 11.3 | 0.00 | 0.03 | 0.00 | 1 | 1019.3 |
| 20260506144608 | 13 | 288 | 4.8 | 11.3 | 0.00 | 0.03 | 0.00 | 1 | 1019.3 |
| 20260506144523 | 13 | 276 | 4.8 | 11.3 | 0.00 | 0.03 | 0.00 | 1 | 1019.2 |
| 20260506144412 | 13 | 244 | 4.8 | 11.3 | 0.00 | 0.03 | 0.00 | 1 | 1019.2 |
| 20260506144208 | 13 | 286 | 4.8 | 11.3 | 0.00 | 0.03 | 0.00 | 1 | 1019.2 |
| 20260506144113 | 13 | 286 | 4.8 | 9.7 | 0.00 | 0.03 | 0.00 | 1 | 1019.2 |
| 20260506144109 | 13 | 287 | 4.8 | 11.3 | 0.00 | 0.03 | 0.00 | 1 | 1019.2 |
| 20260506143904 | 13 | 270 | 4.8 | 9.7 | 0.00 | 0.03 | 0.00 | 1 | 1019.2 |
| 20260506143804 | 13 | 250 | 4.8 | 11.3 | 0.00 | 0.03 | 0.00 | 1 | 1019.2 |
| 20260506143703 | 13 | 275 | 4.8 | 11.3 | 0.00 | 0.03 | 0.00 | 1 | 1019.2 |
| 20260506143559 | 13 | 275 | 4.8 | 11.3 | 0.00 | 0.03 | 0.00 | 1 | 1019.2 |
| 20260506143456 | 13 | 262 | 4.8 | 11.3 | 0.00 | 0.03 | 0.00 | 1 | 1019.2 |
| 20260506143356 | 13 | 279 | 4.8 | 11.3 | 0.00 | 0.03 | 0.00 | 1 | 1019.2 |
| 20260506143256 | 13 | 250 | 4.8 | 11.3 | 0.00 | 0.03 | 0.00 | 1 | 1019.2 |
| 20260506143156 | 13 | 225 | 6.4 | 11.3 | 0.00 | 0.03 | 0.00 | 1 | 1019.2 |
| 20260506143050 | 13 | 269 | 6.4 | 14.5 | 0.00 | 0.03 | 0.00 | 1 | 1019.1 |
| 20260506142950 | 13 | 257 | 6.4 | 14.5 | 0.00 | 0.03 | 0.00 | 1 | 1019.2 |
| 20260506142851 | 13 | 273 | 6.4 | 14.5 | 0.00 | 0.03 | 0.00 | 1 | 1019.2 |
| 20260506142750 | 13 | 242 | 6.4 | 14.5 | 0.00 | 0.03 | 0.00 | 1 | 1019.2 |
| 20260506142650 | 13 | 252 | 8.0 | 14.5 | 0.00 | 0.03 | 0.00 | 1 | 1019.1 |
| 20260506142545 | 13 | 267 | 8.0 | 14.5 | 0.00 | 0.03 | 0.00 | 1 | 1019.2 |
| 20260506142444 | 13 | 270 | 8.0 | 14.5 | 0.00 | 0.03 | 0.00 | 1 | 1019.1 |
| 20260506142344 | 13 | 295 | 8.0 | 14.5 | 0.00 | 0.03 | 0.00 | 1 | 1019.1 |
| 20260506142244 | 13 | 277 | 8.0 | 14.5 | 0.00 | 0.03 | 0.00 | 1 | 1019.1 |
| 20260506142144 | 13 | 279 | 6.4 | 14.5 | 0.00 | 0.03 | 0.00 | 1 | 1019.1 |
| 20260506142038 | 13 | 284 | 6.4 | 12.9 | 0.00 | 0.03 | 0.00 | 1 | 1019.1 |
| 20260506141939 | 13 | 290 | 6.4 | 12.9 | 0.00 | 0.03 | 0.00 | 1 | 1019.0 |
| 20260506141838 | 13 | 265 | 8.0 | 14.5 | 0.00 | 0.03 | 0.00 | 1 | 1019.0 |
| 20260506141738 | 13 | 275 | 8.0 | 14.5 | 0.00 | 0.03 | 0.00 | 1 | 1019.1 |
| 20260506141641 | 13 | 278 | 8.0 | 14.5 | 0.00 | 0.03 | 0.00 | 1 | 1019.0 |
| 20260506141637 | 13 | 278 | 8.0 | 14.5 | 0.00 | 0.03 | 0.00 | 1 | 1019.0 |
| 20260506141432 | 13 | 281 | 8.0 | 14.5 | 0.00 | 0.03 | 0.00 | 1 | 1019.0 |
| 20260506141332 | 13 | 263 | 9.7 | 14.5 | 0.00 | 0.03 | 0.00 | 1 | 1019.0 |
| 20260506141232 | 13 | 264 | 9.7 | 14.5 | 0.00 | 0.03 | 0.00 | 1 | 1019.0 |
| 20260506141132 | 13 | 273 | 8.0 | 14.5 | 0.00 | 0.03 | 0.00 | 1 | 1019.0 |
| 20260506141026 | 13 | 270 | 8.0 | 14.5 | 0.00 | 0.03 | 0.00 | 1 | 1018.9 |
| 20260506140926 | 13 | 260 | 8.0 | 14.5 | 0.00 | 0.03 | 0.00 | 1 | 1018.9 |
| 20260506140827 | 13 | 263 | 6.4 | 14.5 | 0.00 | 0.03 | 0.00 | 1 | 1018.9 |
| 20260506140726 | 13 | 273 | 6.4 | 14.5 | 0.00 | 0.03 | 0.00 | 1 | 1018.9 |
| 20260506140626 | 13 | 284 | 4.8 | 14.5 | 0.00 | 0.03 | 0.00 | 1 | 1018.9 |
| 20260506140521 | 13 | 291 | 4.8 | 12.9 | 0.00 | 0.03 | 0.00 | 1 | 1018.9 |
| 20260506140421 | 13 | 279 | 4.8 | 12.9 | 0.00 | 0.03 | 0.00 | 1 | 1018.9 |
| 20260506140320 | 13 | 256 | 4.8 | 11.3 | 0.00 | 0.03 | 0.00 | 1 | 1018.8 |
| 20260506140220 | 13 | 294 | 4.8 | 9.7 | 0.00 | 0.03 | 0.00 | 1 | 1018.9 |
| 20260506140120 | 13 | 282 | 4.8 | 9.7 | 0.00 | 0.03 | 0.00 | 1 | 1018.8 |
| 20260506140015 | 13 | 226 | 4.8 | 9.7 | 0.00 | 0.03 | 0.00 | 1 | 1018.8 |
| 20260506135914 | 13 | 284 | 4.8 | 11.3 | 0.00 | 0.03 | 0.00 | 1 | 1018.9 |
| 20260506135814 | 13 | 274 | 4.8 | 11.3 | 0.00 | 0.03 | 0.00 | 1 | 1018.8 |
| 20260506135714 | 13 | 260 | 4.8 | 11.3 | 0.00 | 0.03 | 0.00 | 1 | 1018.8 |
| 20260506135629 | 13 | 292 | 4.8 | 11.3 | 0.00 | 0.03 | 0.00 | 1 | 1018.7 |
| 20260506135625 | 13 | 294 | 4.8 | 11.3 | 0.00 | 0.03 | 0.00 | 1 | 1018.8 |
| 20260506135516 | 13 | 290 | 4.8 | 11.3 | 0.00 | 0.03 | 0.00 | 1 | 1018.8 |
| 20260506135208 | 13 | 286 | 4.8 | 11.3 | 0.00 | 0.03 | 0.00 | 1 | 1018.7 |
| 20260506135108 | 13 | 278 | 4.8 | 11.3 | 0.00 | 0.03 | 0.00 | 1 | 1018.7 |
| 20260506135004 | 13 | 282 | 3.2 | 11.3 | 0.00 | 0.03 | 0.00 | 1 | 1018.7 |
| 20260506134904 | 13 | 294 | 3.2 | 11.3 | 0.00 | 0.03 | 0.00 | 1 | 1018.7 |
| 20260506134804 | 13 | 290 | 3.2 | 11.3 | 0.00 | 0.03 | 0.00 | 1 | 1018.7 |
| 20260506134704 | 13 | 263 | 3.2 | 11.3 | 0.00 | 0.03 | 0.00 | 1 | 1018.6 |
| 20260506134602 | 13 | 274 | 3.2 | 11.3 | 0.00 | 0.03 | 0.00 | 1 | 1018.7 |
| 20260506134456 | 13 | 269 | 3.2 | 6.4 | 0.00 | 0.03 | 0.00 | 1 | 1018.6 |
| 20260506134357 | 13 | 296 | 3.2 | 6.4 | 0.00 | 0.03 | 0.00 | 1 | 1018.6 |
| 20260506134257 | 13 | 296 | 3.2 | 8.0 | 0.00 | 0.03 | 0.00 | 1 | 1018.7 |
| 20260506134156 | 13 | 297 | 3.2 | 9.7 | 0.00 | 0.03 | 0.00 | 1 | 1018.6 |
| 20260506134056 | 13 | 279 | 3.2 | 9.7 | 0.00 | 0.03 | 0.00 | 1 | 1018.7 |
| 20260506133951 | 13 | 279 | 3.2 | 9.7 | 0.00 | 0.03 | 0.00 | 1 | 1018.6 |
| 20260506133851 | 13 | 292 | 3.2 | 9.7 | 0.00 | 0.03 | 0.00 | 1 | 1018.7 |
| 20260506133750 | 13 | 296 | 3.2 | 9.7 | 0.00 | 0.03 | 0.00 | 1 | 1018.7 |
| 20260506133650 | 13 | 304 | 3.2 | 9.7 | 0.00 | 0.03 | 0.00 | 1 | 1018.6 |
| 20260506133550 | 13 | 279 | 3.2 | 9.7 | 0.00 | 0.03 | 0.00 | 1 | 1018.6 |
| 20260506133445 | 13 | 301 | 3.2 | 9.7 | 0.00 | 0.03 | 0.00 | 1 | 1018.6 |
| 20260506133344 | 13 | 319 | 4.8 | 9.7 | 0.00 | 0.03 | 0.00 | 1 | 1018.6 |
| 20260506133244 | 13 | 307 | 3.2 | 9.7 | 0.00 | 0.03 | 0.00 | 1 | 1018.6 |
| 20260506133144 | 13 | 306 | 3.2 | 9.7 | 0.00 | 0.03 | 0.00 | 1 | 1018.6 |
| 20260506133043 | 13 | 297 | 3.2 | 9.7 | 0.00 | 0.03 | 0.00 | 1 | 1018.6 |
| 20260506132939 | 13 | 321 | 3.2 | 9.7 | 0.00 | 0.03 | 0.00 | 1 | 1018.6 |
| 20260506132839 | 13 | 300 | 3.2 | 9.7 | 0.00 | 0.03 | 0.00 | 1 | 1018.6 |
| 20260506132738 | 13 | 299 | 3.2 | 9.7 | 0.00 | 0.03 | 0.00 | 1 | 1018.6 |
| 20260506132638 | 13 | 272 | 3.2 | 9.7 | 0.00 | 0.03 | 0.00 | 1 | 1018.6 |
| 20260506132538 | 13 | 271 | 3.2 | 9.7 | 0.00 | 0.03 | 0.00 | 1 | 1018.5 |
| 20260506132436 | 13 | 279 | 3.2 | 9.7 | 0.00 | 0.03 | 0.00 | 1 | 1018.6 |
| 20260506132336 | 13 | 275 | 3.2 | 9.7 | 0.00 | 0.03 | 0.00 | 1 | 1018.6 |
| 20260506132237 | 13 | 275 | 3.2 | 9.7 | 0.00 | 0.03 | 0.00 | 1 | 1018.6 |
| 20260506132134 | 13 | 275 | 3.2 | 9.7 | 0.00 | 0.03 | 0.00 | 1 | 1018.6 |
| 20260506132032 | 13 | 275 | 3.2 | 9.7 | 0.00 | 0.03 | 0.00 | 1 | 1018.6 |
| 20260506131932 | 13 | 275 | 3.2 | 9.7 | 0.00 | 0.03 | 0.00 | 1 | 1018.5 |
| 20260506131831 | 13 | 301 | 3.2 | 9.7 | 0.00 | 0.03 | 0.00 | 1 | 1018.6 |
| 20260506131730 | 13 | 301 | 3.2 | 9.7 | 0.00 | 0.03 | 0.00 | 1 | 1018.5 |
| 20260506131639 | 13 | 275 | 3.2 | 9.7 | 0.00 | 0.03 | 0.00 | 1 | 1018.5 |
| 20260506131635 | 13 | 275 | 4.8 | 9.7 | 0.00 | 0.03 | 0.00 | 1 | 1018.5 |
| 20260506131630 | 13 | 283 | 3.2 | 9.7 | 0.00 | 0.03 | 0.00 | 1 | 1018.5 |
| 20260506131321 | 12 | 277 | 3.2 | 9.7 | 0.00 | 0.03 | 0.00 | 1 | 1018.5 |
| 20260506131221 | 13 | 285 | 3.2 | 9.7 | 0.00 | 0.03 | 0.00 | 1 | 1018.5 |
| 20260506131120 | 13 | 286 | 3.2 | 9.7 | 0.00 | 0.03 | 0.00 | 1 | 1018.5 |
| 20260506131020 | 13 | 275 | 3.2 | 9.7 | 0.00 | 0.03 | 0.00 | 1 | 1018.5 |
| 20260506130920 | 13 | 277 | 3.2 | 9.7 | 0.00 | 0.03 | 0.00 | 1 | 1018.4 |
| 20260506130818 | 12 | 275 | 3.2 | 9.7 | 0.00 | 0.03 | 0.00 | 1 | 1018.4 |
| 20260506130719 | 12 | 260 | 3.2 | 6.4 | 0.00 | 0.03 | 0.00 | 1 | 1018.4 |
| 20260506130616 | 12 | 260 | 3.2 | 6.4 | 0.00 | 0.03 | 0.00 | 1 | 1018.4 |
| 20260506130514 | 12 | 260 | 3.2 | 6.4 | 0.00 | 0.03 | 0.00 | 1 | 1018.4 |
| 20260506130410 | 12 | 283 | 3.2 | 6.4 | 0.00 | 0.03 | 0.00 | 1 | 1018.4 |
| 20260506130308 | 12 | 286 | 3.2 | 6.4 | 0.00 | 0.03 | 0.00 | 1 | 1018.4 |
| 20260506130208 | 12 | 286 | 3.2 | 6.4 | 0.00 | 0.03 | 0.00 | 1 | 1018.4 |
| 20260506130108 | 12 | 304 | 3.2 | 6.4 | 0.00 | 0.03 | 0.00 | 1 | 1018.4 |
| 20260506130008 | 12 | 303 | 4.8 | 8.0 | 0.00 | 0.03 | 0.00 | 1 | 1018.4 |
| 20260506125905 | 12 | 289 | 4.8 | 9.7 | 0.00 | 0.03 | 0.00 | 1 | 1018.4 |
| 20260506125802 | 12 | 288 | 4.8 | 9.7 | 0.00 | 0.03 | 0.00 | 1 | 1018.4 |
| 20260506125702 | 12 | 293 | 4.8 | 9.7 | 0.00 | 0.03 | 0.00 | 1 | 1018.4 |
| 20260506125602 | 12 | 307 | 4.8 | 9.7 | 0.00 | 0.03 | 0.00 | 1 | 1018.4 |
| 20260506125502 | 12 | 290 | 4.8 | 9.7 | 0.00 | 0.03 | 0.00 | 1 | 1018.4 |
| 20260506125402 | 12 | 287 | 4.8 | 12.9 | 0.00 | 0.03 | 0.00 | 1 | 1018.4 |
| 20260506125307 | 12 | 288 | 4.8 | 12.9 | 0.00 | 0.03 | 0.00 | 1 | 1018.4 |
| 20260506125305 | 12 | 288 | 4.8 | 12.9 | 0.00 | 0.03 | 0.00 | 1 | 1018.4 |
| 20260506125058 | 12 | 282 | 6.4 | 12.9 | 0.00 | 0.03 | 0.00 | 1 | 1018.4 |
| 20260506124956 | 12 | 272 | 6.4 | 12.9 | 0.00 | 0.03 | 0.00 | 1 | 1018.4 |
| 20260506124856 | 13 | 292 | 6.4 | 12.9 | 0.00 | 0.03 | 0.00 | 1 | 1018.4 |
| 20260506124754 | 12 | 289 | 6.4 | 12.9 | 0.00 | 0.03 | 0.00 | 1 | 1018.4 |
| 20260506124654 | 13 | 284 | 6.4 | 12.9 | 0.00 | 0.03 | 0.00 | 1 | 1018.3 |
| 20260506124552 | 13 | 284 | 6.4 | 12.9 | 0.00 | 0.03 | 0.00 | 1 | 1018.4 |
| 20260506124450 | 13 | 276 | 6.4 | 12.9 | 0.00 | 0.03 | 0.00 | 1 | 1018.3 |
| 20260506124344 | 13 | 286 | 6.4 | 14.5 | 0.00 | 0.03 | 0.00 | 1 | 1018.3 |
| 20260506124244 | 13 | 277 | 6.4 | 14.5 | 0.00 | 0.03 | 0.00 | 1 | 1018.3 |
| 20260506124144 | 13 | 290 | 6.4 | 14.5 | 0.00 | 0.03 | 0.00 | 1 | 1018.3 |
| 20260506124044 | 13 | 288 | 6.4 | 14.5 | 0.00 | 0.03 | 0.00 | 1 | 1018.3 |
| 20260506123944 | 13 | 279 | 6.4 | 14.5 | 0.00 | 0.03 | 0.00 | 1 | 1018.3 |
| 20260506123840 | 13 | 281 | 6.4 | 14.5 | 0.00 | 0.03 | 0.00 | 1 | 1018.4 |
| 20260506123738 | 13 | 303 | 6.4 | 14.5 | 0.00 | 0.03 | 0.00 | 1 | 1018.3 |
| 20260506123639 | 13 | 271 | 6.4 | 14.5 | 0.00 | 0.03 | 0.00 | 1 | 1018.3 |
| 20260506123538 | 13 | 279 | 6.4 | 14.5 | 0.00 | 0.03 | 0.00 | 1 | 1018.3 |
| 20260506123438 | 13 | 283 | 4.8 | 14.5 | 0.00 | 0.03 | 0.00 | 1 | 1018.3 |
| 20260506123332 | 13 | 267 | 4.8 | 11.3 | 0.00 | 0.03 | 0.00 | 1 | 1018.3 |
| 20260506123232 | 13 | 273 | 4.8 | 11.3 | 0.00 | 0.03 | 0.00 | 1 | 1018.3 |
| 20260506123132 | 13 | 284 | 4.8 | 11.3 | 0.00 | 0.03 | 0.00 | 1 | 1018.3 |
| 20260506123032 | 13 | 284 | 4.8 | 11.3 | 0.00 | 0.03 | 0.00 | 1 | 1018.3 |
| 20260506122932 | 13 | 311 | 4.8 | 11.3 | 0.00 | 0.03 | 0.00 | 1 | 1018.3 |
| 20260506122826 | 13 | 288 | 4.8 | 11.3 | 0.00 | 0.03 | 0.00 | 1 | 1018.3 |
| 20260506122726 | 13 | 287 | 4.8 | 11.3 | 0.00 | 0.03 | 0.00 | 1 | 1018.3 |
| 20260506122626 | 13 | 289 | 4.8 | 11.3 | 0.00 | 0.03 | 0.00 | 1 | 1018.3 |
| 20260506122526 | 13 | 288 | 4.8 | 11.3 | 0.00 | 0.03 | 0.00 | 1 | 1018.3 |
| 20260506122426 | 13 | 294 | 4.8 | 11.3 | 0.00 | 0.03 | 0.00 | 1 | 1018.3 |
| 20260506122320 | 13 | 301 | 4.8 | 11.3 | 0.00 | 0.03 | 0.00 | 1 | 1018.3 |
| 20260506122220 | 13 | 293 | 4.8 | 11.3 | 0.00 | 0.03 | 0.00 | 1 | 1018.2 |
| 20260506122120 | 13 | 277 | 3.2 | 11.3 | 0.00 | 0.03 | 0.00 | 1 | 1018.2 |
| 20260506122020 | 13 | 279 | 3.2 | 11.3 | 0.00 | 0.03 | 0.00 | 1 | 1018.2 |
| 20260506121920 | 13 | 298 | 3.2 | 11.3 | 0.00 | 0.03 | 0.00 | 1 | 1018.2 |
| 20260506121817 | 13 | 284 | 3.2 | 11.3 | 0.00 | 0.03 | 0.00 | 1 | 1018.2 |
| 20260506121717 | 13 | 287 | 3.2 | 11.3 | 0.00 | 0.03 | 0.00 | 1 | 1018.2 |
| 20260506121618 | 13 | 294 | 3.2 | 6.4 | 0.00 | 0.03 | 0.00 | 1 | 1018.2 |
| 20260506121516 | 13 | 290 | 3.2 | 6.4 | 0.00 | 0.03 | 0.00 | 1 | 1018.1 |
| 20260506121414 | 13 | 291 | 3.2 | 9.7 | 0.00 | 0.03 | 0.00 | 1 | 1018.2 |
| 20260506121308 | 13 | 292 | 4.8 | 12.9 | 0.00 | 0.03 | 0.00 | 1 | 1018.2 |
| 20260506121208 | 13 | 292 | 4.8 | 12.9 | 0.00 | 0.03 | 0.00 | 1 | 1018.1 |
| 20260506121108 | 13 | 292 | 4.8 | 12.9 | 0.00 | 0.03 | 0.00 | 1 | 1018.1 |
| 20260506121008 | 13 | 277 | 4.8 | 12.9 | 0.00 | 0.03 | 0.00 | 1 | 1018.1 |
| 20260506120907 | 13 | 300 | 4.8 | 12.9 | 0.00 | 0.03 | 0.00 | 1 | 1018.1 |
| 20260506120808 | 13 | 294 | 3.2 | 12.9 | 0.00 | 0.03 | 0.00 | 1 | 1018.1 |
| 20260506120706 | 13 | 296 | 4.8 | 12.9 | 0.00 | 0.03 | 0.00 | 1 | 1018.2 |
| 20260506120604 | 13 | 296 | 4.8 | 12.9 | 0.00 | 0.03 | 0.00 | 1 | 1018.1 |
| 20260506120504 | 13 | 292 | 4.8 | 12.9 | 0.00 | 0.03 | 0.00 | 1 | 1018.2 |
| 20260506120403 | 13 | 300 | 4.8 | 12.9 | 0.00 | 0.03 | 0.00 | 1 | 1018.1 |
| 20260506120304 | 13 | 286 | 3.2 | 9.7 | 0.00 | 0.03 | 0.00 | 1 | 1018.1 |
| 20260506120204 | 13 | 298 | 3.2 | 9.7 | 0.00 | 0.03 | 0.00 | 1 | 1018.1 |
| 20260506120104 | 13 | 298 | 4.8 | 9.7 | 0.00 | 0.03 | 0.00 | 1 | 1018.2 |
| 20260506120004 | 13 | 279 | 4.8 | 11.3 | 0.00 | 0.03 | 0.00 | 1 | 1018.1 |
| 20260506115903 | 13 | 286 | 4.8 | 11.3 | 0.00 | 0.03 | 0.00 | 1 | 1018.1 |
| 20260506115804 | 13 | 284 | 4.8 | 11.3 | 0.00 | 0.03 | 0.00 | 1 | 1018.1 |
| 20260506115704 | 13 | 285 | 4.8 | 11.3 | 0.00 | 0.03 | 0.00 | 1 | 1018.1 |
| 20260506115604 | 13 | 269 | 4.8 | 11.3 | 0.00 | 0.03 | 0.00 | 1 | 1018.1 |
| 20260506115504 | 13 | 295 | 4.8 | 11.3 | 0.00 | 0.03 | 0.00 | 1 | 1018.2 |
| 20260506115404 | 13 | 275 | 4.8 | 11.3 | 0.00 | 0.03 | 0.00 | 1 | 1018.1 |
| 20260506115306 | 13 | 275 | 4.8 | 11.3 | 0.00 | 0.03 | 0.00 | 1 | 1018.1 |
| 20260506115204 | 13 | 281 | 4.8 | 11.3 | 0.00 | 0.03 | 0.00 | 1 | 1018.1 |
| 20260506115101 | 13 | 275 | 3.2 | 11.3 | 0.00 | 0.03 | 0.00 | 1 | 1018.1 |
| 20260506115002 | 13 | 283 | 3.2 | 9.7 | 0.00 | 0.03 | 0.00 | 1 | 1018.1 |
| 20260506114902 | 13 | 285 | 3.2 | 6.4 | 0.00 | 0.03 | 0.00 | 1 | 1018.1 |
| 20260506114800 | 13 | 284 | 3.2 | 11.3 | 0.00 | 0.03 | 0.00 | 1 | 1018.1 |
| 20260506114700 | 13 | 282 | 4.8 | 11.3 | 0.00 | 0.03 | 0.00 | 1 | 1018.1 |
| 20260506114600 | 13 | 316 | 4.8 | 11.3 | 0.00 | 0.03 | 0.00 | 1 | 1018.1 |
| 20260506114500 | 13 | 280 | 4.8 | 11.3 | 0.00 | 0.03 | 0.00 | 1 | 1018.1 |
| 20260506114400 | 13 | 289 | 4.8 | 11.3 | 0.00 | 0.03 | 0.00 | 1 | 1018.1 |
| 20260506114300 | 13 | 290 | 4.8 | 11.3 | 0.00 | 0.03 | 0.00 | 1 | 1018.1 |
| 20260506114200 | 13 | 292 | 4.8 | 11.3 | 0.00 | 0.03 | 0.00 | 1 | 1018.1 |
| 20260506114100 | 13 | 295 | 4.8 | 11.3 | 0.00 | 0.03 | 0.00 | 1 | 1018.1 |
| 20260506114000 | 13 | 288 | 4.8 | 11.3 | 0.00 | 0.03 | 0.00 | 1 | 1018.1 |
| 20260506113859 | 13 | 275 | 4.8 | 11.3 | 0.00 | 0.03 | 0.00 | 1 | 1018.1 |
| 20260506113800 | 13 | 271 | 4.8 | 11.3 | 0.00 | 0.03 | 0.00 | 1 | 1018.1 |
| 20260506113700 | 13 | 294 | 4.8 | 11.3 | 0.00 | 0.03 | 0.00 | 1 | 1018.0 |
| 20260506113600 | 13 | 296 | 4.8 | 11.3 | 0.00 | 0.03 | 0.00 | 1 | 1018.1 |
| 20260506113500 | 13 | 275 | 4.8 | 11.3 | 0.00 | 0.03 | 0.00 | 1 | 1018.0 |
| 20260506113357 | 13 | 273 | 4.8 | 11.3 | 0.00 | 0.03 | 0.00 | 1 | 1018.0 |
| 20260506113257 | 13 | 287 | 4.8 | 11.3 | 0.00 | 0.03 | 0.00 | 1 | 1018.0 |
| 20260506113158 | 13 | 288 | 6.4 | 11.3 | 0.00 | 0.03 | 0.00 | 1 | 1017.9 |
| 20260506113056 | 13 | 267 | 6.4 | 11.3 | 0.00 | 0.03 | 0.00 | 1 | 1017.9 |
| 20260506112956 | 13 | 277 | 6.4 | 11.3 | 0.00 | 0.03 | 0.00 | 1 | 1017.9 |
| 20260506112856 | 13 | 281 | 4.8 | 11.3 | 0.00 | 0.03 | 0.00 | 1 | 1017.9 |
| 20260506112756 | 13 | 280 | 4.8 | 11.3 | 0.00 | 0.03 | 0.00 | 1 | 1017.9 |
| 20260506112654 | 13 | 298 | 4.8 | 11.3 | 0.00 | 0.03 | 0.00 | 1 | 1017.9 |
| 20260506112554 | 13 | 289 | 4.8 | 11.3 | 0.00 | 0.03 | 0.00 | 1 | 1017.9 |
| 20260506112454 | 13 | 293 | 4.8 | 11.3 | 0.00 | 0.03 | 0.00 | 1 | 1017.9 |
| 20260506112354 | 13 | 288 | 4.8 | 11.3 | 0.00 | 0.03 | 0.00 | 1 | 1017.9 |
| 20260506112252 | 13 | 290 | 4.8 | 11.3 | 0.00 | 0.03 | 0.00 | 1 | 1017.8 |
| 20260506112152 | 13 | 279 | 6.4 | 11.3 | 0.00 | 0.03 | 0.00 | 1 | 1017.9 |
| 20260506112052 | 12 | 290 | 6.4 | 11.3 | 0.00 | 0.03 | 0.00 | 1 | 1017.9 |
| 20260506111951 | 12 | 298 | 6.4 | 11.3 | 0.00 | 0.03 | 0.00 | 1 | 1017.9 |
| 20260506111852 | 12 | 292 | 6.4 | 11.3 | 0.00 | 0.03 | 0.00 | 1 | 1017.9 |
| 20260506111752 | 12 | 279 | 6.4 | 11.3 | 0.00 | 0.03 | 0.00 | 1 | 1017.9 |
| 20260506111650 | 12 | 279 | 6.4 | 11.3 | 0.00 | 0.03 | 0.00 | 1 | 1017.9 |
| 20260506111550 | 12 | 274 | 6.4 | 11.3 | 0.00 | 0.03 | 0.00 | 1 | 1017.9 |
| 20260506111449 | 12 | 279 | 6.4 | 11.3 | 0.00 | 0.03 | 0.00 | 1 | 1017.9 |
| 20260506111350 | 12 | 291 | 6.4 | 11.3 | 0.00 | 0.03 | 0.00 | 1 | 1017.8 |
| 20260506111250 | 12 | 288 | 6.4 | 12.9 | 0.00 | 0.03 | 0.00 | 1 | 1017.8 |
| 20260506111150 | 12 | 279 | 6.4 | 12.9 | 0.00 | 0.03 | 0.00 | 1 | 1017.8 |
| 20260506111050 | 12 | 286 | 6.4 | 12.9 | 0.00 | 0.03 | 0.00 | 1 | 1017.8 |
| 20260506110950 | 12 | 275 | 6.4 | 12.9 | 0.00 | 0.03 | 0.00 | 1 | 1017.8 |
| 20260506110849 | 12 | 282 | 6.4 | 12.9 | 0.00 | 0.03 | 0.00 | 1 | 1017.8 |
| 20260506110750 | 12 | 273 | 6.4 | 12.9 | 0.00 | 0.03 | 0.00 | 1 | 1017.8 |
| 20260506110649 | 12 | 284 | 6.4 | 12.9 | 0.00 | 0.03 | 0.00 | 1 | 1017.8 |
| 20260506110550 | 12 | 284 | 6.4 | 12.9 | 0.00 | 0.03 | 0.00 | 1 | 1017.8 |
| 20260506110450 | 12 | 281 | 6.4 | 12.9 | 0.00 | 0.03 | 0.00 | 1 | 1017.8 |
| 20260506110350 | 12 | 280 | 6.4 | 12.9 | 0.00 | 0.03 | 0.00 | 1 | 1017.8 |
| 20260506110303 | 12 | 286 | 6.4 | 11.3 | 0.00 | 0.03 | 0.00 | 1 | 1017.7 |
| 20260506110154 | 12 | 274 | 4.8 | 11.3 | 0.00 | 0.03 | 0.00 | 1 | 1017.7 |
| 20260506105949 | 13 | 281 | 4.8 | 11.3 | 0.00 | 0.03 | 0.00 | 1 | 1017.8 |
| 20260506105850 | 13 | 281 | 4.8 | 11.3 | 0.00 | 0.03 | 0.00 | 1 | 1017.7 |
| 20260506105744 | 13 | 279 | 4.8 | 11.3 | 0.00 | 0.03 | 0.00 | 1 | 1017.7 |
| 20260506105644 | 13 | 284 | 4.8 | 11.3 | 0.00 | 0.03 | 0.00 | 1 | 1017.7 |
| 20260506105544 | 13 | 309 | 4.8 | 12.9 | 0.00 | 0.03 | 0.00 | 1 | 1017.8 |
| 20260506105444 | 13 | 278 | 6.4 | 12.9 | 0.00 | 0.03 | 0.00 | 1 | 1017.7 |
| 20260506105343 | 13 | 279 | 6.4 | 14.5 | 0.00 | 0.03 | 0.00 | 1 | 1017.7 |
| 20260506105244 | 13 | 296 | 6.4 | 14.5 | 0.00 | 0.03 | 0.00 | 1 | 1017.7 |
| 20260506105153 | 13 | 248 | 6.4 | 14.5 | 0.00 | 0.03 | 0.00 | 1 | 1017.7 |
| 20260506105148 | 13 | 275 | 6.4 | 14.5 | 0.00 | 0.03 | 0.00 | 1 | 1017.7 |
| 20260506104944 | 13 | 297 | 8.0 | 14.5 | 0.00 | 0.03 | 0.00 | 1 | 1017.7 |
| 20260506104844 | 13 | 286 | 8.0 | 14.5 | 0.00 | 0.03 | 0.00 | 1 | 1017.7 |
| 20260506104744 | 13 | 296 | 8.0 | 14.5 | 0.00 | 0.03 | 0.00 | 1 | 1017.7 |
| 20260506104644 | 13 | 286 | 8.0 | 14.5 | 0.00 | 0.03 | 0.00 | 1 | 1017.7 |
| 20260506104538 | 13 | 279 | 8.0 | 14.5 | 0.00 | 0.03 | 0.00 | 1 | 1017.7 |
| 20260506104438 | 13 | 326 | 8.0 | 14.5 | 0.00 | 0.03 | 0.00 | 1 | 1017.7 |
| 20260506104346 | 13 | 284 | 6.4 | 12.9 | 0.00 | 0.03 | 0.00 | 1 | 1017.7 |
| 20260506104342 | 13 | 288 | 8.0 | 12.9 | 0.00 | 0.03 | 0.00 | 1 | 1017.7 |
| 20260506104138 | 13 | 286 | 8.0 | 12.9 | 0.00 | 0.03 | 0.00 | 1 | 1017.7 |
| 20260506104037 | 13 | 288 | 8.0 | 12.9 | 0.00 | 0.03 | 0.00 | 1 | 1017.7 |
| 20260506103938 | 13 | 278 | 8.0 | 12.9 | 0.00 | 0.03 | 0.00 | 1 | 1017.6 |
| 20260506103838 | 13 | 277 | 8.0 | 12.9 | 0.00 | 0.03 | 0.00 | 1 | 1017.6 |
| 20260506103738 | 13 | 285 | 8.0 | 12.9 | 0.00 | 0.03 | 0.00 | 1 | 1017.7 |
| 20260506103638 | 13 | 277 | 8.0 | 17.7 | 0.00 | 0.03 | 0.00 | 1 | 1017.7 |
| 20260506103537 | 13 | 272 | 8.0 | 17.7 | 0.00 | 0.03 | 0.00 | 1 | 1017.7 |
| 20260506103437 | 13 | 277 | 8.0 | 17.7 | 0.00 | 0.03 | 0.00 | 1 | 1017.7 |
| 20260506103334 | 13 | 270 | 8.0 | 17.7 | 0.00 | 0.03 | 0.00 | 1 | 1017.7 |
| 20260506103234 | 13 | 267 | 8.0 | 17.7 | 0.00 | 0.03 | 0.00 | 1 | 1017.7 |
| 20260506103134 | 13 | 286 | 8.0 | 17.7 | 0.00 | 0.03 | 0.00 | 1 | 1017.7 |
| 20260506103034 | 13 | 296 | 8.0 | 17.7 | 0.00 | 0.03 | 0.00 | 1 | 1017.7 |
| 20260506102933 | 13 | 273 | 8.0 | 17.7 | 0.00 | 0.03 | 0.00 | 1 | 1017.7 |
| 20260506102833 | 13 | 295 | 8.0 | 17.7 | 0.00 | 0.03 | 0.00 | 1 | 1017.6 |
| 20260506102734 | 13 | 289 | 6.4 | 17.7 | 0.00 | 0.03 | 0.00 | 1 | 1017.7 |
| 20260506102633 | 12 | 288 | 6.4 | 14.5 | 0.00 | 0.03 | 0.00 | 1 | 1017.7 |
| 20260506102534 | 13 | 279 | 6.4 | 14.5 | 0.00 | 0.03 | 0.00 | 1 | 1017.7 |
| 20260506102434 | 12 | 280 | 6.4 | 14.5 | 0.00 | 0.03 | 0.00 | 1 | 1017.7 |
| 20260506102334 | 12 | 281 | 6.4 | 14.5 | 0.00 | 0.03 | 0.00 | 1 | 1017.7 |
| 20260506102234 | 12 | 279 | 8.0 | 14.5 | 0.00 | 0.03 | 0.00 | 1 | 1017.7 |
| 20260506102133 | 12 | 284 | 8.0 | 14.5 | 0.00 | 0.03 | 0.00 | 1 | 1017.7 |
| 20260506102034 | 12 | 281 | 6.4 | 14.5 | 0.00 | 0.03 | 0.00 | 1 | 1017.6 |
| 20260506101934 | 12 | 267 | 6.4 | 11.3 | 0.00 | 0.05 | 0.00 | 1 | 1017.6 |
| 20260506101834 | 12 | 269 | 6.4 | 11.3 | 0.00 | 0.05 | 0.00 | 1 | 1017.6 |
| 20260506101734 | 12 | 281 | 8.0 | 11.3 | 0.00 | 0.05 | 0.00 | 1 | 1017.6 |
| 20260506101634 | 12 | 279 | 6.4 | 12.9 | 0.00 | 0.05 | 0.00 | 1 | 1017.6 |
| 20260506101534 | 12 | 286 | 6.4 | 12.9 | 0.00 | 0.05 | 0.00 | 1 | 1017.6 |
| 20260506101430 | 12 | 255 | 6.4 | 12.9 | 0.00 | 0.05 | 0.00 | 1 | 1017.6 |
| 20260506101330 | 12 | 279 | 6.4 | 12.9 | 0.00 | 0.05 | 0.00 | 1 | 1017.6 |
| 20260506101230 | 12 | 267 | 6.4 | 12.9 | 0.00 | 0.05 | 0.00 | 1 | 1017.6 |
| 20260506101129 | 12 | 281 | 6.4 | 12.9 | 0.00 | 0.05 | 0.00 | 1 | 1017.6 |
| 20260506101029 | 12 | 269 | 6.4 | 12.9 | 0.00 | 0.05 | 0.00 | 1 | 1017.6 |
| 20260506100930 | 12 | 279 | 6.4 | 12.9 | 0.00 | 0.05 | 0.00 | 1 | 1017.6 |
| 20260506100830 | 12 | 276 | 6.4 | 12.9 | 0.00 | 0.05 | 0.00 | 1 | 1017.6 |
| 20260506100730 | 12 | 276 | 6.4 | 12.9 | 0.00 | 0.05 | 0.00 | 1 | 1017.6 |
| 20260506100630 | 12 | 272 | 6.4 | 12.9 | 0.00 | 0.05 | 0.00 | 1 | 1017.5 |
| 20260506100550 | 12 | 304 | 6.4 | 11.3 | 0.00 | 0.05 | 0.00 | 1 | 1017.5 |
| 20260506100430 | 12 | 269 | 6.4 | 11.3 | 0.00 | 0.05 | 0.00 | 1 | 1017.6 |
| 20260506100330 | 12 | 259 | 6.4 | 11.3 | 0.00 | 0.05 | 0.00 | 1 | 1017.5 |
| 20260506100230 | 12 | 286 | 6.4 | 11.3 | 0.00 | 0.05 | 0.00 | 1 | 1017.6 |
| 20260506100130 | 12 | 276 | 6.4 | 11.3 | 0.00 | 0.05 | 0.00 | 1 | 1017.6 |
| 20260506100030 | 12 | 283 | 6.4 | 12.9 | 0.00 | 0.05 | 0.00 | 1 | 1017.5 |
| 20260506095929 | 12 | 278 | 6.4 | 12.9 | 0.00 | 0.05 | 0.00 | 1 | 1017.6 |
| 20260506095830 | 12 | 286 | 6.4 | 12.9 | 0.00 | 0.05 | 0.00 | 1 | 1017.6 |
| 20260506095730 | 13 | 292 | 6.4 | 12.9 | 0.00 | 0.05 | 0.00 | 1 | 1017.6 |
| 20260506095630 | 12 | 281 | 6.4 | 12.9 | 0.00 | 0.05 | 0.00 | 1 | 1017.6 |
| 20260506095525 | 12 | 277 | 6.4 | 12.9 | 0.00 | 0.05 | 0.00 | 1 | 1017.5 |
| 20260506095426 | 12 | 286 | 6.4 | 12.9 | 0.00 | 0.05 | 0.00 | 1 | 1017.5 |
| 20260506095326 | 12 | 286 | 6.4 | 14.5 | 0.00 | 0.05 | 0.00 | 1 | 1017.6 |
| 20260506095226 | 12 | 269 | 6.4 | 14.5 | 0.00 | 0.05 | 0.00 | 1 | 1017.6 |
| 20260506095126 | 12 | 286 | 6.4 | 14.5 | 0.00 | 0.05 | 0.00 | 1 | 1017.6 |
| 20260506095023 | 12 | 290 | 4.8 | 14.5 | 0.00 | 0.05 | 0.00 | 1 | 1017.6 |
| 20260506094924 | 12 | 274 | 4.8 | 14.5 | 0.00 | 0.05 | 0.00 | 1 | 1017.6 |
| 20260506094824 | 13 | 294 | 4.8 | 14.5 | 0.00 | 0.05 | 0.00 | 1 | 1017.6 |
| 20260506094732 | 13 | 308 | 4.8 | 14.5 | 0.00 | 0.05 | 0.00 | 1 | 1017.6 |
| 20260506094728 | 13 | 282 | 4.8 | 14.5 | 0.00 | 0.05 | 0.00 | 1 | 1017.6 |
| 20260506094532 | 13 | 257 | 4.8 | 14.5 | 0.00 | 0.05 | 0.00 | 1 | 1017.7 |
| 20260506094528 | 13 | 288 | 4.8 | 14.5 | 0.00 | 0.05 | 0.00 | 1 | 1017.6 |
| 20260506094324 | 13 | 279 | 4.8 | 14.5 | 0.00 | 0.05 | 0.00 | 1 | 1017.7 |
| 20260506094223 | 13 | 279 | 4.8 | 14.5 | 0.00 | 0.05 | 0.00 | 1 | 1017.7 |
| 20260506094122 | 13 | 286 | 6.4 | 14.5 | 0.00 | 0.05 | 0.00 | 1 | 1017.7 |
| 20260506094022 | 13 | 259 | 6.4 | 14.5 | 0.00 | 0.05 | 0.00 | 1 | 1017.7 |
| 20260506093922 | 13 | 271 | 6.4 | 14.5 | 0.00 | 0.05 | 0.00 | 1 | 1017.7 |
| 20260506093820 | 13 | 290 | 6.4 | 14.5 | 0.00 | 0.05 | 0.00 | 1 | 1017.7 |
| 20260506093720 | 13 | 294 | 6.4 | 14.5 | 0.00 | 0.05 | 0.00 | 1 | 1017.7 |
| 20260506093619 | 13 | 281 | 6.4 | 14.5 | 0.00 | 0.05 | 0.00 | 1 | 1017.7 |
| 20260506093519 | 13 | 307 | 6.4 | 14.5 | 0.00 | 0.05 | 0.00 | 1 | 1017.6 |
| 20260506093420 | 13 | 276 | 8.0 | 14.5 | 0.00 | 0.05 | 0.00 | 1 | 1017.7 |
| 20260506093320 | 13 | 277 | 8.0 | 16.1 | 0.00 | 0.05 | 0.00 | 1 | 1017.6 |
| 20260506093217 | 13 | 277 | 8.0 | 16.1 | 0.00 | 0.05 | 0.00 | 1 | 1017.6 |
| 20260506093117 | 13 | 275 | 8.0 | 16.1 | 0.00 | 0.05 | 0.00 | 1 | 1017.6 |
| 20260506093018 | 13 | 289 | 8.0 | 16.1 | 0.00 | 0.05 | 0.00 | 1 | 1017.6 |
| 20260506092918 | 13 | 281 | 8.0 | 16.1 | 0.00 | 0.05 | 0.00 | 1 | 1017.6 |
| 20260506092818 | 13 | 275 | 8.0 | 16.1 | 0.00 | 0.05 | 0.00 | 1 | 1017.6 |
| 20260506092717 | 13 | 301 | 8.0 | 16.1 | 0.00 | 0.05 | 0.00 | 1 | 1017.6 |
| 20260506092617 | 13 | 266 | 8.0 | 16.1 | 0.00 | 0.05 | 0.00 | 1 | 1017.5 |
| 20260506092517 | 13 | 270 | 8.0 | 16.1 | 0.00 | 0.05 | 0.00 | 1 | 1017.5 |
| 20260506092417 | 13 | 281 | 8.0 | 16.1 | 0.00 | 0.05 | 0.00 | 1 | 1017.5 |
| 20260506092318 | 13 | 286 | 8.0 | 14.5 | 0.00 | 0.05 | 0.00 | 1 | 1017.5 |
| 20260506092218 | 13 | 273 | 8.0 | 14.5 | 0.00 | 0.05 | 0.00 | 1 | 1017.5 |
| 20260506092116 | 13 | 286 | 8.0 | 14.5 | 0.00 | 0.05 | 0.00 | 1 | 1017.5 |
| 20260506092015 | 13 | 288 | 8.0 | 14.5 | 0.00 | 0.05 | 0.00 | 1 | 1017.5 |
| 20260506091914 | 13 | 284 | 8.0 | 14.5 | 0.00 | 0.05 | 0.00 | 1 | 1017.5 |
| 20260506091814 | 13 | 279 | 8.0 | 14.5 | 0.00 | 0.05 | 0.00 | 1 | 1017.5 |
| 20260506091714 | 13 | 294 | 8.0 | 14.5 | 0.00 | 0.05 | 0.00 | 1 | 1017.5 |
| 20260506091614 | 13 | 281 | 8.0 | 14.5 | 0.00 | 0.05 | 0.00 | 1 | 1017.5 |
| 20260506091514 | 13 | 252 | 8.0 | 14.5 | 0.00 | 0.05 | 0.00 | 1 | 1017.5 |
| 20260506091414 | 13 | 296 | 8.0 | 14.5 | 0.00 | 0.05 | 0.00 | 1 | 1017.5 |
| 20260506091322 | 13 | 292 | 8.0 | 14.5 | 0.00 | 0.05 | 0.00 | 1 | 1017.5 |
| 20260506091318 | 13 | 281 | 8.0 | 14.5 | 0.00 | 0.05 | 0.00 | 1 | 1017.5 |
| 20260506091113 | 13 | 259 | 6.4 | 14.5 | 0.00 | 0.05 | 0.00 | 1 | 1017.5 |
| 20260506091013 | 13 | 273 | 6.4 | 14.5 | 0.00 | 0.05 | 0.00 | 1 | 1017.5 |
| 20260506090910 | 13 | 277 | 6.4 | 14.5 | 0.00 | 0.05 | 0.00 | 1 | 1017.5 |
| 20260506090810 | 13 | 294 | 6.4 | 14.5 | 0.00 | 0.05 | 0.00 | 1 | 1017.5 |
| 20260506090710 | 13 | 279 | 6.4 | 12.9 | 0.00 | 0.05 | 0.00 | 1 | 1017.5 |
| 20260506090608 | 13 | 294 | 6.4 | 14.5 | 0.00 | 0.05 | 0.00 | 1 | 1017.5 |
| 20260506090507 | 13 | 265 | 6.4 | 14.5 | 0.00 | 0.05 | 0.00 | 1 | 1017.5 |
| 20260506090404 | 13 | 277 | 8.0 | 14.5 | 0.00 | 0.05 | 0.00 | 1 | 1017.5 |
| 20260506090301 | 13 | 280 | 8.0 | 14.5 | 0.00 | 0.05 | 0.00 | 1 | 1017.5 |
| 20260506090159 | 13 | 274 | 8.0 | 14.5 | 0.00 | 0.05 | 0.00 | 1 | 1017.5 |
| 20260506090100 | 13 | 265 | 8.0 | 14.5 | 0.00 | 0.05 | 0.00 | 1 | 1017.5 |
| 20260506085958 | 13 | 278 | 8.0 | 14.5 | 0.00 | 0.05 | 0.00 | 1 | 1017.5 |
| 20260506085857 | 13 | 306 | 8.0 | 17.7 | 0.00 | 0.05 | 0.00 | 1 | 1017.5 |
| 20260506085756 | 13 | 277 | 9.7 | 17.7 | 0.00 | 0.05 | 0.00 | 1 | 1017.6 |
| 20260506085655 | 13 | 288 | 9.7 | 17.7 | 0.00 | 0.05 | 0.00 | 1 | 1017.5 |
| 20260506085554 | 13 | 267 | 9.7 | 17.7 | 0.00 | 0.05 | 0.00 | 1 | 1017.5 |
| 20260506085450 | 13 | 286 | 9.7 | 17.7 | 0.00 | 0.05 | 0.00 | 1 | 1017.5 |
| 20260506085348 | 13 | 283 | 8.0 | 17.7 | 0.00 | 0.05 | 0.00 | 1 | 1017.5 |
| 20260506085246 | 13 | 286 | 8.0 | 17.7 | 0.00 | 0.05 | 0.00 | 1 | 1017.5 |
| 20260506085145 | 13 | 279 | 8.0 | 17.7 | 0.00 | 0.05 | 0.00 | 1 | 1017.5 |
| 20260506085045 | 13 | 281 | 8.0 | 17.7 | 0.00 | 0.05 | 0.00 | 1 | 1017.5 |
| 20260506084945 | 13 | 284 | 8.0 | 17.7 | 0.00 | 0.05 | 0.00 | 1 | 1017.5 |
| 20260506084840 | 13 | 286 | 8.0 | 16.1 | 0.00 | 0.05 | 0.00 | 1 | 1017.4 |
| 20260506084739 | 13 | 291 | 8.0 | 16.1 | 0.00 | 0.05 | 0.00 | 1 | 1017.5 |
| 20260506084639 | 13 | 295 | 8.0 | 16.1 | 0.00 | 0.05 | 0.00 | 1 | 1017.5 |
| 20260506084558 | 13 | 271 | 8.0 | 16.1 | 0.00 | 0.05 | 0.00 | 1 | 1017.6 |
| 20260506084554 | 13 | 300 | 9.7 | 16.1 | 0.00 | 0.05 | 0.00 | 1 | 1017.5 |
| 20260506084550 | 13 | 286 | 9.7 | 16.1 | 0.00 | 0.05 | 0.00 | 1 | 1017.6 |
| 20260506084546 | 13 | 272 | 8.0 | 16.1 | 0.00 | 0.05 | 0.00 | 1 | 1017.6 |
| 20260506084133 | 13 | 281 | 9.7 | 16.1 | 0.00 | 0.05 | 0.00 | 1 | 1017.5 |
| 20260506084034 | 13 | 261 | 8.0 | 16.1 | 0.00 | 0.05 | 0.00 | 1 | 1017.6 |
| 20260506083931 | 13 | 274 | 8.0 | 16.1 | 0.00 | 0.05 | 0.00 | 1 | 1017.6 |
| 20260506083826 | 13 | 281 | 9.7 | 16.1 | 0.00 | 0.05 | 0.00 | 1 | 1017.5 |
| 20260506083726 | 13 | 310 | 9.7 | 16.1 | 0.00 | 0.05 | 0.00 | 1 | 1017.5 |
| 20260506083626 | 13 | 271 | 9.7 | 16.1 | 0.00 | 0.05 | 0.00 | 1 | 1017.5 |
| 20260506083526 | 13 | 279 | 9.7 | 16.1 | 0.00 | 0.05 | 0.00 | 1 | 1017.5 |
| 20260506083425 | 13 | 283 | 9.7 | 16.1 | 0.00 | 0.05 | 0.00 | 1 | 1017.5 |
| 20260506083322 | 13 | 284 | 8.0 | 16.1 | 0.00 | 0.05 | 0.00 | 1 | 1017.5 |
| 20260506083219 | 13 | 275 | 9.7 | 14.5 | 0.00 | 0.05 | 0.00 | 1 | 1017.5 |
| 20260506083119 | 13 | 282 | 8.0 | 14.5 | 0.00 | 0.05 | 0.00 | 1 | 1017.6 |
| 20260506083019 | 13 | 263 | 9.7 | 14.5 | 0.00 | 0.08 | 0.00 | 1 | 1017.6 |
| 20260506082917 | 13 | 282 | 9.7 | 14.5 | 0.00 | 0.08 | 0.00 | 1 | 1017.6 |
| 20260506082810 | 13 | 281 | 8.0 | 14.5 | 0.00 | 0.08 | 0.00 | 1 | 1017.6 |
| 20260506082710 | 13 | 286 | 8.0 | 14.5 | 0.00 | 0.08 | 0.00 | 1 | 1017.6 |
| 20260506082610 | 13 | 277 | 8.0 | 14.5 | 0.00 | 0.08 | 0.00 | 1 | 1017.6 |
| 20260506082509 | 13 | 275 | 8.0 | 14.5 | 0.00 | 0.08 | 0.00 | 1 | 1017.7 |
| 20260506082411 | 13 | 279 | 6.4 | 14.5 | 0.00 | 0.08 | 0.00 | 1 | 1017.7 |
| 20260506082408 | 13 | 277 | 6.4 | 14.5 | 0.00 | 0.08 | 0.00 | 1 | 1017.7 |
| 20260506082203 | 13 | 275 | 6.4 | 14.5 | 0.00 | 0.08 | 0.00 | 1 | 1017.7 |
| 20260506082103 | 13 | 300 | 6.4 | 14.5 | 0.00 | 0.08 | 0.00 | 1 | 1017.7 |
| 20260506082004 | 13 | 274 | 4.8 | 14.5 | 0.00 | 0.10 | 0.00 | 1 | 1017.7 |
| 20260506081902 | 13 | 278 | 4.8 | 11.3 | 0.00 | 0.10 | 0.00 | 1 | 1017.7 |
| 20260506081756 | 13 | 263 | 4.8 | 11.3 | 0.00 | 0.10 | 0.00 | 1 | 1017.7 |
| 20260506081656 | 13 | 272 | 4.8 | 11.3 | 0.00 | 0.10 | 0.00 | 1 | 1017.7 |
| 20260506081555 | 13 | 239 | 4.8 | 11.3 | 0.00 | 0.10 | 0.00 | 1 | 1017.8 |
| 20260506081455 | 13 | 266 | 4.8 | 11.3 | 0.00 | 0.10 | 0.00 | 1 | 1017.7 |
| 20260506081355 | 13 | 281 | 4.8 | 11.3 | 0.00 | 0.10 | 0.00 | 1 | 1017.7 |
| 20260506081258 | 13 | 281 | 4.8 | 11.3 | 0.00 | 0.10 | 0.00 | 1 | 1017.7 |
| 20260506081254 | 13 | 279 | 4.8 | 11.3 | 0.00 | 0.10 | 0.00 | 1 | 1017.7 |
| 20260506081050 | 13 | 280 | 6.4 | 11.3 | 0.00 | 0.10 | 0.00 | 1 | 1017.7 |
| 20260506080950 | 13 | 294 | 6.4 | 11.3 | 0.00 | 0.10 | 0.00 | 1 | 1017.7 |
| 20260506080849 | 13 | 269 | 6.4 | 11.3 | 0.00 | 0.10 | 0.00 | 1 | 1017.7 |
| 20260506080744 | 13 | 292 | 6.4 | 11.3 | 0.00 | 0.10 | 0.00 | 1 | 1017.7 |
| 20260506080644 | 13 | 271 | 6.4 | 11.3 | 0.00 | 0.10 | 0.00 | 1 | 1017.7 |
| 20260506080543 | 13 | 277 | 6.4 | 12.9 | 0.00 | 0.13 | 0.00 | 1 | 1017.7 |
| 20260506080443 | 13 | 281 | 6.4 | 12.9 | 0.00 | 0.13 | 0.00 | 1 | 1017.7 |
| 20260506080343 | 13 | 280 | 6.4 | 12.9 | 0.00 | 0.13 | 0.00 | 1 | 1017.6 |
| 20260506080237 | 13 | 280 | 6.4 | 12.9 | 0.00 | 0.13 | 0.00 | 1 | 1017.6 |
| 20260506080137 | 13 | 276 | 6.4 | 12.9 | 0.00 | 0.13 | 0.00 | 1 | 1017.6 |
| 20260506073510 | 13 | 267 | 6.4 | 12.9 | 0.00 | 0.15 | 0.00 | 1 | 1017.4 |
| 20260506073410 | 13 | 294 | 6.4 | 12.9 | 0.00 | 0.15 | 0.00 | 1 | 1017.4 |
| 20260506073306 | 13 | 267 | 6.4 | 12.9 | 0.00 | 0.15 | 0.00 | 1 | 1017.4 |
| 20260506073204 | 13 | 290 | 6.4 | 12.9 | 0.00 | 0.15 | 0.00 | 1 | 1017.4 |
| 20260506073104 | 13 | 294 | 6.4 | 12.9 | 0.00 | 0.15 | 0.00 | 1 | 1017.4 |
| 20260506073004 | 13 | 281 | 6.4 | 12.9 | 0.00 | 0.18 | 0.00 | 1 | 1017.4 |
| 20260506072903 | 13 | 281 | 6.4 | 12.9 | 0.00 | 0.18 | 0.00 | 1 | 1017.3 |
| 20260506072801 | 13 | 279 | 6.4 | 12.9 | 0.00 | 0.18 | 0.00 | 1 | 1017.4 |
| 20260506072655 | 13 | 281 | 6.4 | 11.3 | 0.00 | 0.18 | 0.00 | 1 | 1017.4 |
| 20260506072555 | 13 | 275 | 4.8 | 11.3 | 0.00 | 0.18 | 0.00 | 1 | 1017.4 |
| 20260506072455 | 13 | 281 | 4.8 | 11.3 | 0.00 | 0.18 | 0.00 | 1 | 1017.3 |
| 20260506072355 | 13 | 280 | 4.8 | 11.3 | 0.00 | 0.18 | 0.00 | 1 | 1017.3 |
| 20260506072255 | 13 | 273 | 4.8 | 11.3 | 0.00 | 0.18 | 0.00 | 1 | 1017.3 |
| 20260506072151 | 13 | 281 | 4.8 | 12.9 | 0.00 | 0.18 | 0.00 | 1 | 1017.3 |
| 20260506072049 | 13 | 281 | 6.4 | 12.9 | 0.00 | 0.18 | 0.00 | 1 | 1017.3 |
| 20260506072002 | 13 | 254 | 6.4 | 12.9 | 0.00 | 0.18 | 0.00 | 1 | 1017.3 |
| 20260506071853 | 13 | 275 | 6.4 | 12.9 | 0.00 | 0.18 | 0.00 | 1 | 1017.3 |
| 20260506071643 | 13 | 287 | 6.4 | 12.9 | 0.00 | 0.18 | 0.00 | 1 | 1017.3 |
| 20260506071543 | 13 | 290 | 8.0 | 14.5 | 0.00 | 0.18 | 0.00 | 1 | 1017.3 |
| 20260506071443 | 13 | 300 | 8.0 | 14.5 | 0.00 | 0.18 | 0.00 | 1 | 1017.3 |
| 20260506071343 | 13 | 284 | 8.0 | 14.5 | 0.00 | 0.18 | 0.00 | 1 | 1017.3 |
| 20260506071243 | 13 | 296 | 8.0 | 14.5 | 0.00 | 0.18 | 0.00 | 1 | 1017.3 |
| 20260506071137 | 13 | 277 | 8.0 | 14.5 | 0.00 | 0.18 | 0.00 | 1 | 1017.3 |
| 20260506071037 | 13 | 288 | 6.4 | 14.5 | 0.00 | 0.18 | 0.00 | 1 | 1017.3 |
| 20260506070937 | 13 | 265 | 6.4 | 14.5 | 0.00 | 0.18 | 0.00 | 1 | 1017.3 |
| 20260506070838 | 13 | 284 | 6.4 | 14.5 | 0.00 | 0.18 | 0.00 | 1 | 1017.3 |
| 20260506070736 | 13 | 265 | 6.4 | 14.5 | 0.00 | 0.18 | 0.00 | 1 | 1017.3 |
| 20260506070631 | 13 | 294 | 8.0 | 14.5 | 0.00 | 0.18 | 0.00 | 1 | 1017.3 |
| 20260506070532 | 13 | 305 | 8.0 | 14.5 | 0.00 | 0.18 | 0.00 | 1 | 1017.3 |
| 20260506070432 | 13 | 310 | 8.0 | 16.1 | 0.00 | 0.18 | 0.00 | 1 | 1017.3 |
| 20260506070331 | 13 | 289 | 8.0 | 16.1 | 0.00 | 0.18 | 0.00 | 1 | 1017.2 |
| 20260506070230 | 13 | 271 | 9.7 | 16.1 | 0.00 | 0.18 | 0.00 | 1 | 1017.2 |
| 20260506070125 | 13 | 285 | 9.7 | 16.1 | 0.00 | 0.18 | 0.00 | 1 | 1017.2 |
| 20260506062455 | 13 | 282 | 9.7 | 16.1 | 0.00 | 0.20 | 0.18 | 1 | 1017.0 |
| 20260506062348 | 13 | 269 | 9.7 | 16.1 | 0.00 | 0.20 | 0.18 | 1 | 1017.0 |
| 20260506062248 | 13 | 282 | 9.7 | 16.1 | 0.00 | 0.20 | 0.18 | 1 | 1017.0 |
| 20260506062148 | 13 | 284 | 9.7 | 16.1 | 0.00 | 0.20 | 0.18 | 1 | 1017.0 |
| 20260506062048 | 13 | 287 | 8.0 | 16.1 | 0.00 | 0.20 | 0.18 | 1 | 1017.0 |
| 20260506061959 | 13 | 279 | 9.7 | 16.1 | 0.00 | 0.20 | 0.18 | 1 | 1016.9 |
| 20260506061955 | 13 | 263 | 9.7 | 16.1 | 0.00 | 0.20 | 0.18 | 1 | 1016.9 |
| 20260506061951 | 13 | 289 | 9.7 | 16.1 | 0.00 | 0.20 | 0.18 | 1 | 1016.9 |
| 20260506061643 | 13 | 285 | 9.7 | 16.1 | 0.00 | 0.20 | 0.18 | 1 | 1016.9 |
| 20260506061542 | 13 | 290 | 9.7 | 16.1 | 0.00 | 0.20 | 0.18 | 1 | 1016.9 |
| 20260506061442 | 13 | 267 | 9.7 | 17.7 | 0.00 | 0.20 | 0.18 | 1 | 1016.9 |
| 20260506061337 | 13 | 267 | 9.7 | 17.7 | 0.00 | 0.20 | 0.18 | 1 | 1016.9 |
| 20260506061236 | 13 | 279 | 9.7 | 17.7 | 0.00 | 0.20 | 0.18 | 1 | 1016.8 |
| 20260506061136 | 13 | 297 | 9.7 | 17.7 | 0.00 | 0.20 | 0.18 | 1 | 1016.9 |
| 20260506061036 | 13 | 283 | 9.7 | 17.7 | 0.00 | 0.20 | 0.18 | 1 | 1016.9 |
| 20260506060936 | 13 | 274 | 9.7 | 17.7 | 0.00 | 0.20 | 0.18 | 1 | 1016.9 |
| 20260506060833 | 13 | 284 | 9.7 | 17.7 | 0.00 | 0.20 | 0.18 | 1 | 1016.9 |
| 20260506060733 | 13 | 312 | 11.3 | 17.7 | 0.00 | 0.20 | 0.18 | 1 | 1016.9 |
| 20260506060632 | 13 | 295 | 11.3 | 17.7 | 0.00 | 0.20 | 0.18 | 1 | 1016.8 |
| 20260506060532 | 13 | 297 | 11.3 | 17.7 | 0.00 | 0.20 | 0.18 | 1 | 1016.8 |
| 20260506060433 | 13 | 271 | 11.3 | 17.7 | 0.00 | 0.20 | 0.18 | 1 | 1016.9 |
| 20260506060429 | 13 | 279 | 9.7 | 17.7 | 0.00 | 0.20 | 0.18 | 1 | 1016.8 |
| 20260506060225 | 13 | 276 | 11.3 | 17.7 | 0.00 | 0.20 | 0.18 | 1 | 1016.9 |
| 20260506060125 | 13 | 277 | 9.7 | 17.7 | 0.00 | 0.20 | 0.18 | 1 | 1016.9 |
| 20260506051330 | 13 | 252 | 9.7 | 17.7 | 0.00 | 0.25 | 0.18 | 1 | 1016.6 |
| 20260506051225 | 13 | 236 | 9.7 | 16.1 | 0.00 | 0.25 | 0.18 | 1 | 1016.6 |
| 20260506051125 | 13 | 279 | 9.7 | 16.1 | 0.00 | 0.25 | 0.18 | 1 | 1016.6 |
| 20260506051024 | 13 | 289 | 9.7 | 16.1 | 0.00 | 0.25 | 0.18 | 1 | 1016.6 |
| 20260506050924 | 13 | 265 | 11.3 | 19.3 | 0.00 | 0.25 | 0.18 | 1 | 1016.6 |
| 20260506050824 | 13 | 278 | 11.3 | 19.3 | 0.00 | 0.25 | 0.18 | 1 | 1016.6 |
| 20260506050721 | 13 | 273 | 9.7 | 19.3 | 0.00 | 0.25 | 0.18 | 1 | 1016.6 |
| 20260506050621 | 13 | 282 | 9.7 | 19.3 | 0.00 | 0.25 | 0.18 | 1 | 1016.5 |
| 20260506050521 | 13 | 336 | 11.3 | 19.3 | 0.00 | 0.25 | 0.18 | 1 | 1016.5 |
| 20260506050421 | 13 | 281 | 11.3 | 19.3 | 0.00 | 0.25 | 0.18 | 1 | 1016.5 |
| 20260506050318 | 13 | 276 | 11.3 | 19.3 | 0.00 | 0.25 | 0.18 | 1 | 1016.5 |
| 20260506050213 | 13 | 291 | 11.3 | 19.3 | 0.00 | 0.25 | 0.18 | 1 | 1016.5 |
| 20260506050112 | 13 | 269 | 11.3 | 19.3 | 0.00 | 0.25 | 0.18 | 1 | 1016.5 |
| 20260506045100 | 13 | 282 | 9.7 | 17.7 | 0.00 | 0.25 | 0.18 | 1 | 1016.5 |
| 20260506045000 | 13 | 277 | 9.7 | 17.7 | 0.00 | 0.25 | 0.18 | 1 | 1016.4 |
| 20260506044900 | 13 | 280 | 9.7 | 17.7 | 0.00 | 0.25 | 0.18 | 1 | 1016.4 |
| 20260506044800 | 13 | 281 | 9.7 | 17.7 | 0.00 | 0.25 | 0.18 | 1 | 1016.5 |
| 20260506044654 | 13 | 267 | 9.7 | 16.1 | 0.00 | 0.25 | 0.18 | 1 | 1016.5 |
| 20260506044554 | 13 | 272 | 8.0 | 16.1 | 0.00 | 0.25 | 0.18 | 1 | 1016.5 |
| 20260506044454 | 13 | 252 | 8.0 | 16.1 | 0.00 | 0.25 | 0.18 | 1 | 1016.5 |
| 20260506044354 | 13 | 291 | 8.0 | 16.1 | 0.00 | 0.25 | 0.18 | 1 | 1016.5 |
| 20260506044254 | 13 | 254 | 8.0 | 16.1 | 0.00 | 0.25 | 0.18 | 1 | 1016.5 |
| 20260506044150 | 13 | 270 | 8.0 | 16.1 | 0.00 | 0.25 | 0.18 | 1 | 1016.4 |
| 20260506044052 | 13 | 311 | 8.0 | 16.1 | 0.00 | 0.25 | 0.18 | 1 | 1016.4 |
| 20260506043950 | 13 | 271 | 8.0 | 16.1 | 0.00 | 0.25 | 0.18 | 1 | 1016.4 |
| 20260506043853 | 13 | 286 | 8.0 | 16.1 | 0.00 | 0.25 | 0.18 | 1 | 1016.4 |
| 20260506043748 | 13 | 277 | 9.7 | 16.1 | 0.00 | 0.25 | 0.18 | 1 | 1016.3 |
| 20260506043642 | 13 | 277 | 9.7 | 16.1 | 0.00 | 0.25 | 0.18 | 1 | 1016.3 |
| 20260506043542 | 13 | 255 | 9.7 | 17.7 | 0.00 | 0.25 | 0.18 | 1 | 1016.4 |
| 20260506043442 | 13 | 278 | 9.7 | 17.7 | 0.00 | 0.28 | 0.18 | 1 | 1016.3 |
| 20260506043343 | 13 | 304 | 9.7 | 17.7 | 0.00 | 0.28 | 0.18 | 1 | 1016.1 |
| 20260506043241 | 13 | 269 | 9.7 | 17.7 | 0.00 | 0.28 | 0.18 | 1 | 1016.3 |
| 20260506043136 | 13 | 312 | 9.7 | 17.7 | 0.00 | 0.28 | 0.18 | 1 | 1016.3 |
| 20260506043036 | 13 | 300 | 9.7 | 17.7 | 0.00 | 0.28 | 0.18 | 1 | 1016.3 |
| 20260506042937 | 13 | 271 | 9.7 | 17.7 | 0.00 | 0.28 | 0.18 | 1 | 1016.3 |
| 20260506042836 | 13 | 281 | 9.7 | 17.7 | 0.00 | 0.28 | 0.18 | 1 | 1016.3 |
| 20260506042736 | 13 | 295 | 9.7 | 17.7 | 0.00 | 0.28 | 0.18 | 1 | 1016.1 |
| 20260506042631 | 13 | 288 | 9.7 | 17.7 | 0.00 | 0.28 | 0.18 | 1 | 1016.1 |
| 20260506042531 | 13 | 265 | 9.7 | 17.7 | 0.00 | 0.28 | 0.18 | 1 | 1016.1 |
| 20260506042430 | 13 | 284 | 9.7 | 17.7 | 0.00 | 0.28 | 0.18 | 1 | 1016.1 |
| 20260506042330 | 13 | 283 | 9.7 | 16.1 | 0.00 | 0.28 | 0.18 | 1 | 1016.1 |
| 20260506042230 | 13 | 285 | 9.7 | 16.1 | 0.00 | 0.28 | 0.18 | 1 | 1016.1 |
| 20260506042124 | 13 | 261 | 9.7 | 16.1 | 0.00 | 0.28 | 0.18 | 1 | 1016.0 |
| 20260506042033 | 13 | 255 | 9.7 | 16.1 | 0.00 | 0.28 | 0.18 | 1 | 1016.1 |
| 20260506042029 | 13 | 273 | 9.7 | 16.1 | 0.00 | 0.28 | 0.18 | 1 | 1016.1 |
| 20260506041824 | 13 | 260 | 9.7 | 16.1 | 0.00 | 0.28 | 0.18 | 1 | 1016.0 |
| 20260506041724 | 13 | 336 | 8.0 | 16.1 | 0.00 | 0.28 | 0.18 | 1 | 1016.0 |
| 20260506041619 | 13 | 279 | 8.0 | 16.1 | 0.00 | 0.28 | 0.18 | 1 | 1016.0 |
| 20260506041518 | 13 | 279 | 8.0 | 16.1 | 0.00 | 0.28 | 0.18 | 1 | 1016.0 |
| 20260506041418 | 13 | 293 | 6.4 | 16.1 | 0.00 | 0.28 | 0.18 | 1 | 1016.0 |
| 20260506041327 | 13 | 263 | 6.4 | 14.5 | 0.00 | 0.28 | 0.18 | 1 | 1016.0 |
| 20260506041323 | 13 | 264 | 6.4 | 14.5 | 0.00 | 0.28 | 0.18 | 1 | 1016.0 |
| 20260506041120 | 13 | 267 | 6.4 | 14.5 | 0.00 | 0.28 | 0.18 | 1 | 1015.9 |
| 20260506041116 | 13 | 274 | 6.4 | 14.5 | 0.00 | 0.28 | 0.18 | 1 | 1015.9 |
| 20260506040912 | 13 | 274 | 8.0 | 16.1 | 0.00 | 0.28 | 0.18 | 1 | 1015.9 |
| 20260506040812 | 13 | 276 | 8.0 | 16.1 | 0.00 | 0.28 | 0.18 | 1 | 1015.9 |
| 20260506040712 | 13 | 275 | 8.0 | 16.1 | 0.00 | 0.28 | 0.18 | 1 | 1015.8 |
| 20260506040606 | 13 | 271 | 8.0 | 16.1 | 0.00 | 0.28 | 0.18 | 1 | 1015.8 |
| 20260506040506 | 13 | 279 | 8.0 | 16.1 | 0.00 | 0.28 | 0.18 | 1 | 1015.8 |
| 20260506040406 | 13 | 281 | 9.7 | 16.1 | 0.00 | 0.28 | 0.18 | 1 | 1015.8 |
| 20260506040306 | 13 | 271 | 9.7 | 16.1 | 0.00 | 0.28 | 0.18 | 1 | 1015.7 |
| 20260506040206 | 13 | 269 | 9.7 | 16.1 | 0.00 | 0.28 | 0.18 | 1 | 1015.8 |
| 20260506040100 | 13 | 254 | 9.7 | 16.1 | 0.00 | 0.28 | 0.18 | 1 | 1015.7 |
| 20260506040000 | 13 | 250 | 8.0 | 16.1 | 0.00 | 0.28 | 0.18 | 1 | 1015.7 |
| 20260506035900 | 13 | 271 | 8.0 | 14.5 | 0.00 | 0.28 | 0.18 | 1 | 1015.7 |
| 20260506035800 | 13 | 268 | 8.0 | 14.5 | 0.00 | 0.28 | 0.18 | 1 | 1015.7 |
| 20260506035700 | 13 | 266 | 8.0 | 14.5 | 0.00 | 0.28 | 0.18 | 1 | 1015.7 |
| 20260506035556 | 13 | 265 | 8.0 | 14.5 | 0.00 | 0.28 | 0.18 | 1 | 1015.7 |
| 20260506035456 | 13 | 248 | 9.7 | 17.7 | 0.00 | 0.28 | 0.18 | 1 | 1015.7 |
| 20260506035356 | 13 | 286 | 9.7 | 17.7 | 0.00 | 0.28 | 0.18 | 1 | 1015.7 |
| 20260506035256 | 13 | 257 | 9.7 | 17.7 | 0.00 | 0.28 | 0.18 | 1 | 1015.7 |
| 20260506035154 | 13 | 251 | 9.7 | 17.7 | 0.00 | 0.28 | 0.18 | 1 | 1015.7 |
| 20260506035048 | 13 | 269 | 9.7 | 17.7 | 0.00 | 0.28 | 0.18 | 1 | 1015.6 |
| 20260506034948 | 13 | 272 | 9.7 | 17.7 | 0.00 | 0.28 | 0.18 | 1 | 1015.6 |
| 20260506034848 | 13 | 244 | 8.0 | 17.7 | 0.00 | 0.28 | 0.18 | 1 | 1015.6 |
| 20260506034748 | 13 | 265 | 8.0 | 17.7 | 0.00 | 0.28 | 0.18 | 1 | 1015.6 |
| 20260506034648 | 13 | 229 | 8.0 | 17.7 | 0.00 | 0.28 | 0.18 | 1 | 1015.6 |
| 20260506034542 | 13 | 274 | 8.0 | 17.7 | 0.00 | 0.28 | 0.18 | 1 | 1015.6 |
| 20260506034442 | 13 | 257 | 8.0 | 17.7 | 0.00 | 0.28 | 0.18 | 1 | 1015.5 |
| 20260506034342 | 13 | 277 | 6.4 | 16.1 | 0.00 | 0.28 | 0.18 | 1 | 1015.5 |
| 20260506034242 | 13 | 274 | 6.4 | 16.1 | 0.00 | 0.28 | 0.18 | 1 | 1015.5 |
| 20260506034142 | 13 | 288 | 6.4 | 16.1 | 0.00 | 0.28 | 0.18 | 1 | 1015.5 |
| 20260506034038 | 13 | 290 | 6.4 | 16.1 | 0.00 | 0.28 | 0.18 | 1 | 1015.5 |
| 20260506033936 | 13 | 271 | 8.0 | 17.7 | 0.00 | 0.28 | 0.18 | 1 | 1015.5 |
| 20260506033836 | 13 | 275 | 8.0 | 17.7 | 0.00 | 0.28 | 0.18 | 1 | 1015.4 |
| 20260506033744 | 13 | 286 | 8.0 | 17.7 | 0.00 | 0.28 | 0.18 | 1 | 1015.4 |
| 20260506033740 | 13 | 277 | 8.0 | 17.7 | 0.00 | 0.28 | 0.18 | 1 | 1015.5 |
| 20260506033530 | 13 | 271 | 8.0 | 17.7 | 0.00 | 0.28 | 0.18 | 1 | 1015.4 |
| 20260506033430 | 13 | 249 | 8.0 | 17.7 | 0.00 | 0.28 | 0.18 | 1 | 1015.5 |
| 20260506033330 | 13 | 269 | 9.7 | 17.7 | 0.00 | 0.28 | 0.18 | 1 | 1015.4 |
| 20260506033238 | 13 | 267 | 9.7 | 17.7 | 0.00 | 0.28 | 0.18 | 1 | 1015.4 |
| 20260506033234 | 13 | 254 | 9.7 | 17.7 | 0.00 | 0.28 | 0.18 | 1 | 1015.5 |
| 20260506033024 | 13 | 263 | 9.7 | 17.7 | 0.00 | 0.28 | 0.18 | 1 | 1015.4 |
| 20260506032924 | 13 | 229 | 9.7 | 17.7 | 0.00 | 0.28 | 0.18 | 1 | 1015.4 |
| 20260506032833 | 13 | 250 | 9.7 | 16.1 | 0.00 | 0.28 | 0.18 | 1 | 1015.3 |
| 20260506032828 | 13 | 233 | 9.7 | 16.1 | 0.00 | 0.28 | 0.18 | 1 | 1015.4 |
| 20260506032624 | 13 | 242 | 9.7 | 16.1 | 0.00 | 0.28 | 0.18 | 1 | 1015.4 |
| 20260506032518 | 13 | 278 | 8.0 | 16.1 | 0.00 | 0.28 | 0.18 | 1 | 1015.3 |
| 20260506032418 | 13 | 292 | 8.0 | 16.1 | 0.00 | 0.28 | 0.18 | 1 | 1015.3 |
| 20260506032318 | 13 | 275 | 9.7 | 16.1 | 0.00 | 0.28 | 0.18 | 1 | 1015.3 |
| 20260506032218 | 13 | 284 | 9.7 | 16.1 | 0.00 | 0.28 | 0.18 | 1 | 1015.3 |
| 20260506032118 | 13 | 254 | 9.7 | 16.1 | 0.00 | 0.28 | 0.18 | 1 | 1015.3 |
| 20260506032012 | 13 | 257 | 9.7 | 16.1 | 0.00 | 0.28 | 0.18 | 1 | 1015.3 |
| 20260506031912 | 13 | 262 | 9.7 | 16.1 | 0.00 | 0.28 | 0.18 | 1 | 1015.3 |
| 20260506031812 | 13 | 294 | 9.7 | 20.9 | 0.00 | 0.28 | 0.18 | 1 | 1015.3 |
| 20260506031710 | 13 | 250 | 9.7 | 20.9 | 0.00 | 0.28 | 0.18 | 1 | 1015.3 |
| 20260506031609 | 13 | 279 | 9.7 | 20.9 | 0.00 | 0.28 | 0.18 | 1 | 1015.2 |
| 20260506031504 | 13 | 237 | 9.7 | 20.9 | 0.00 | 0.28 | 0.18 | 1 | 1015.2 |
| 20260506031404 | 13 | 284 | 9.7 | 20.9 | 0.00 | 0.28 | 0.18 | 1 | 1015.2 |
| 20260506031304 | 13 | 277 | 8.0 | 20.9 | 0.00 | 0.28 | 0.18 | 1 | 1015.1 |
| 20260506031212 | 13 | 278 | 8.0 | 20.9 | 0.00 | 0.28 | 0.18 | 1 | 1015.1 |
| 20260506031208 | 13 | 261 | 8.0 | 20.9 | 0.00 | 0.28 | 0.18 | 1 | 1015.1 |
| 20260506031004 | 13 | 281 | 8.0 | 20.9 | 0.00 | 0.28 | 0.18 | 1 | 1015.1 |
| 20260506030903 | 13 | 252 | 8.0 | 20.9 | 0.00 | 0.28 | 0.18 | 1 | 1015.1 |
| 20260506030805 | 13 | 275 | 8.0 | 16.1 | 0.00 | 0.28 | 0.18 | 1 | 1015.1 |
| 20260506030704 | 14 | 292 | 8.0 | 20.9 | 0.00 | 0.28 | 0.18 | 1 | 1015.1 |
| 20260506030602 | 14 | 274 | 8.0 | 20.9 | 0.00 | 0.28 | 0.18 | 1 | 1015.1 |
| 20260506030456 | 14 | 292 | 9.7 | 20.9 | 0.00 | 0.28 | 0.18 | 1 | 1015.1 |
| 20260506030355 | 14 | 269 | 9.7 | 20.9 | 0.00 | 0.28 | 0.18 | 1 | 1015.1 |
| 20260506030255 | 14 | 278 | 9.7 | 20.9 | 0.00 | 0.28 | 0.18 | 1 | 1015.1 |
| 20260506030156 | 14 | 274 | 11.3 | 20.9 | 0.00 | 0.28 | 0.18 | 1 | 1015.1 |
| 20260506030056 | 14 | 279 | 11.3 | 20.9 | 0.00 | 0.28 | 0.18 | 1 | 1015.1 |
| 20260506025956 | 14 | 284 | 11.3 | 20.9 | 0.00 | 0.28 | 0.18 | 1 | 1015.1 |
| 20260506025856 | 13 | 265 | 11.3 | 20.9 | 0.00 | 0.28 | 0.18 | 1 | 1015.1 |
| 20260506025756 | 13 | 229 | 11.3 | 19.3 | 0.00 | 0.28 | 0.18 | 1 | 1015.1 |
| 20260506025656 | 13 | 235 | 11.3 | 19.3 | 0.00 | 0.28 | 0.18 | 1 | 1015.1 |
| 20260506025556 | 13 | 234 | 11.3 | 19.3 | 0.00 | 0.28 | 0.18 | 1 | 1015.1 |
| 20260506025456 | 13 | 269 | 11.3 | 19.3 | 0.00 | 0.28 | 0.18 | 1 | 1015.0 |
| 20260506025358 | 13 | 323 | 11.3 | 19.3 | 0.00 | 0.28 | 0.18 | 1 | 1015.0 |
| 20260506025354 | 14 | 241 | 11.3 | 19.3 | 0.00 | 0.28 | 0.18 | 1 | 1015.0 |
| 20260506025150 | 14 | 271 | 11.3 | 19.3 | 0.00 | 0.28 | 0.18 | 1 | 1015.0 |
| 20260506025059 | 14 | 265 | 11.3 | 17.7 | 0.00 | 0.28 | 0.18 | 1 | 1015.0 |
| 20260506025054 | 14 | 285 | 11.3 | 17.7 | 0.00 | 0.28 | 0.18 | 1 | 1015.0 |
| 20260506024850 | 14 | 268 | 11.3 | 19.3 | 0.00 | 0.28 | 0.18 | 1 | 1015.0 |
| 20260506024747 | 14 | 238 | 11.3 | 19.3 | 0.00 | 0.28 | 0.18 | 1 | 1015.0 |
| 20260506024647 | 14 | 265 | 12.9 | 20.9 | 0.00 | 0.28 | 0.18 | 1 | 1014.9 |
| 20260506024548 | 14 | 250 | 12.9 | 20.9 | 0.00 | 0.28 | 0.18 | 1 | 1015.0 |
| 20260506024448 | 14 | 211 | 12.9 | 20.9 | 0.00 | 0.28 | 0.18 | 1 | 1015.0 |
| 20260506024348 | 14 | 239 | 12.9 | 22.5 | 0.00 | 0.28 | 0.18 | 1 | 1014.9 |
| 20260506024248 | 14 | 240 | 14.5 | 22.5 | 0.00 | 0.28 | 0.18 | 1 | 1014.9 |
| 20260506024149 | 14 | 229 | 12.9 | 22.5 | 0.00 | 0.28 | 0.18 | 1 | 1014.9 |
| 20260506024048 | 14 | 217 | 12.9 | 22.5 | 0.00 | 0.28 | 0.18 | 1 | 1014.9 |
| 20260506023948 | 14 | 282 | 12.9 | 22.5 | 0.00 | 0.28 | 0.18 | 1 | 1015.0 |
| 20260506023848 | 14 | 227 | 14.5 | 22.5 | 0.00 | 0.28 | 0.18 | 1 | 1015.0 |
| 20260506023748 | 14 | 277 | 12.9 | 22.5 | 0.00 | 0.28 | 0.18 | 1 | 1015.0 |
| 20260506023649 | 14 | 246 | 12.9 | 22.5 | 0.00 | 0.28 | 0.18 | 1 | 1014.9 |
| 20260506023547 | 14 | 246 | 12.9 | 22.5 | 0.00 | 0.28 | 0.18 | 1 | 1015.0 |
| 20260506023447 | 14 | 229 | 12.9 | 24.1 | 0.00 | 0.28 | 0.18 | 1 | 1014.9 |
| 20260506023348 | 14 | 229 | 12.9 | 24.1 | 0.00 | 0.28 | 0.18 | 1 | 1014.9 |
| 20260506023248 | 14 | 271 | 12.9 | 24.1 | 0.00 | 0.28 | 0.18 | 1 | 1015.0 |
| 20260506023148 | 14 | 251 | 14.5 | 24.1 | 0.00 | 0.28 | 0.18 | 1 | 1014.9 |
| 20260506023044 | 14 | 259 | 14.5 | 24.1 | 0.00 | 0.28 | 0.18 | 1 | 1014.9 |
| 20260506022944 | 14 | 198 | 14.5 | 24.1 | 0.00 | 0.28 | 0.18 | 1 | 1014.9 |
| 20260506022844 | 14 | 243 | 14.5 | 24.1 | 0.00 | 0.28 | 0.18 | 1 | 1014.9 |
| 20260506022744 | 14 | 225 | 14.5 | 24.1 | 0.00 | 0.28 | 0.18 | 1 | 1014.9 |
| 20260506022644 | 14 | 263 | 16.1 | 24.1 | 0.00 | 0.28 | 0.18 | 1 | 1014.9 |
| 20260506022544 | 14 | 242 | 16.1 | 24.1 | 0.00 | 0.28 | 0.18 | 1 | 1014.8 |
| 20260506022443 | 14 | 247 | 16.1 | 24.1 | 0.00 | 0.28 | 0.18 | 1 | 1014.8 |
| 20260506022344 | 14 | 253 | 16.1 | 24.1 | 0.00 | 0.28 | 0.18 | 1 | 1014.8 |
| 20260506022243 | 14 | 257 | 16.1 | 25.7 | 0.00 | 0.28 | 0.18 | 1 | 1014.8 |
| 20260506022143 | 14 | 245 | 16.1 | 25.7 | 0.00 | 0.28 | 0.18 | 1 | 1014.8 |
| 20260506022044 | 14 | 265 | 16.1 | 25.7 | 0.00 | 0.28 | 0.18 | 1 | 1014.7 |
| 20260506021944 | 14 | 271 | 16.1 | 25.7 | 0.00 | 0.28 | 0.18 | 1 | 1014.7 |
| 20260506021844 | 14 | 265 | 17.7 | 25.7 | 0.00 | 0.28 | 0.18 | 1 | 1014.7 |
| 20260506021744 | 14 | 237 | 16.1 | 25.7 | 0.00 | 0.28 | 0.18 | 1 | 1014.7 |
| 20260506021644 | 14 | 263 | 16.1 | 25.7 | 0.00 | 0.28 | 0.18 | 1 | 1014.7 |
| 20260506021544 | 14 | 244 | 16.1 | 25.7 | 0.00 | 0.28 | 0.18 | 1 | 1014.7 |
| 20260506021442 | 14 | 306 | 16.1 | 25.7 | 0.00 | 0.28 | 0.18 | 1 | 1014.7 |
| 20260506021341 | 14 | 255 | 16.1 | 25.7 | 0.00 | 0.28 | 0.18 | 1 | 1014.6 |
| 20260506021241 | 14 | 247 | 16.1 | 25.7 | 0.00 | 0.28 | 0.18 | 1 | 1014.7 |
| 20260506021151 | 14 | 213 | 14.5 | 25.7 | 0.00 | 0.28 | 0.18 | 1 | 1014.7 |
| 20260506021147 | 14 | 225 | 14.5 | 25.7 | 0.00 | 0.28 | 0.18 | 1 | 1014.6 |
| 20260506020942 | 14 | 238 | 14.5 | 25.7 | 0.00 | 0.28 | 0.18 | 1 | 1014.7 |
| 20260506020842 | 14 | 226 | 14.5 | 25.7 | 0.00 | 0.28 | 0.18 | 1 | 1014.7 |
| 20260506020742 | 14 | 223 | 14.5 | 24.1 | 0.00 | 0.28 | 0.18 | 1 | 1014.6 |
| 20260506020635 | 14 | 235 | 14.5 | 24.1 | 0.00 | 0.28 | 0.18 | 1 | 1014.7 |
| 20260506020536 | 14 | 217 | 16.1 | 25.7 | 0.00 | 0.28 | 0.18 | 1 | 1014.7 |
| 20260506020436 | 14 | 261 | 14.5 | 25.7 | 0.00 | 0.28 | 0.18 | 1 | 1014.7 |
| 20260506020336 | 14 | 202 | 16.1 | 25.7 | 0.00 | 0.28 | 0.18 | 1 | 1014.7 |
| 20260506020236 | 14 | 282 | 16.1 | 25.7 | 0.00 | 0.28 | 0.18 | 1 | 1014.7 |